[[{"header":{"parameterUnit":"m.s-1","parameterCategory":1,"la1":30.6,"la2":29.2853,"lo1":-89.7004,"lo2":-87.6739,"dy":0.0162,"dx":0.0183,"nx":112,"ny":82,"refTime":"2025-11-04T12:00:00:Z","depth":0,"parameterNumber":2,"parameterNumberName":"U-component_of_WINDS"},"data":[0.0,0.0,0.0,0.0,0.0,0.0,0.0,0.0,0.0,0.0,0.0,0.0,0.0,0.0,0.0,0.0,0.0,0.0,0.0,0.0,0.0,0.0,0.0,0.0,0.0,0.0,0.0,0.0,0.0,0.0,0.0,0.0,0.0,0.0,0.0,0.0,0.0,0.0,0.0,0.0,0.0,0.0,0.0,0.0,0.0,0.0,0.0,0.0,0.0,0.0,0.0,0.0,0.0,0.0,0.0,0.0,0.0,0.0,0.0,0.0,0.0,0.0,0.0,0.0,0.0,0.0,0.0,0.0,0.0,0.0,0.0,0.0,0.0,0.0,0.0,0.0,0.0,0.0,0.0,0.0,0.0,0.0,0.0,0.0,0.0,0.0,0.0,0.0,0.0,0.0,6.909,7.6938,8.517,8.944,8.7748,8.644,8.0862,6.9513,0.0,0.0,0.0,0.0,0.0,0.0,0.0,0.0,0.0,0.0,0.0,0.0,0.0,0.0,0.0,0.0,0.0,0.0,0.0,0.0,0.0,0.0,0.0,0.0,0.0,0.0,0.0,0.0,0.0,0.0,0.0,0.0,0.0,0.0,0.0,0.0,0.0,0.0,0.0,0.0,0.0,0.0,0.0,0.0,0.0,0.0,0.0,0.0,0.0,0.0,0.0,0.0,0.0,0.0,0.0,0.0,0.0,0.0,0.0,0.0,0.0,0.0,0.0,0.0,0.0,0.0,0.0,0.0,0.0,0.0,0.0,0.0,0.0,0.0,0.0,0.0,0.0,0.0,0.0,0.0,0.0,0.0,0.0,0.0,0.0,0.0,0.0,0.0,0.0,0.0,0.0,0.0,0.0,0.0,0.0,0.0,0.0,0.0,0.0,0.0,0.0,0.0,0.0,0.0,7.1706,8.4324,8.8863,9.0325,8.8632,8.5709,8.0131,7.1091,0.0,0.0,0.0,0.0,0.0,0.0,0.0,0.0,0.0,0.0,0.0,0.0,0.0,0.0,0.0,0.0,0.0,0.0,0.0,0.0,0.0,0.0,0.0,0.0,0.0,0.0,0.0,0.0,0.0,0.0,0.0,0.0,0.0,0.0,0.0,0.0,0.0,0.0,0.0,0.0,0.0,0.0,0.0,0.0,0.0,0.0,0.0,0.0,0.0,0.0,0.0,0.0,0.0,0.0,0.0,0.0,0.0,0.0,0.0,0.0,0.0,0.0,0.0,0.0,0.0,0.0,0.0,0.0,0.0,0.0,0.0,0.0,0.0,0.0,0.0,0.0,0.0,0.0,0.0,0.0,0.0,0.0,0.0,0.0,0.0,0.0,0.0,0.0,0.0,0.0,0.0,0.0,0.0,0.0,0.0,0.0,0.0,0.0,0.0,0.0,0.0,0.0,0.0,7.0706,7.6784,8.7594,8.9787,9.0017,8.8786,8.5132,7.9285,7.0783,6.382,0.0,0.0,0.0,0.0,0.0,0.0,0.0,0.0,0.0,0.0,0.0,0.0,0.0,0.0,0.0,0.0,0.0,0.0,0.0,0.0,0.0,0.0,0.0,0.0,0.0,0.0,0.0,0.0,0.0,0.0,0.0,0.0,0.0,0.0,0.0,0.0,0.0,0.0,0.0,0.0,0.0,0.0,0.0,0.0,0.0,0.0,0.0,0.0,0.0,0.0,0.0,0.0,0.0,0.0,0.0,0.0,0.0,0.0,0.0,0.0,0.0,0.0,0.0,0.0,0.0,0.0,0.0,0.0,0.0,0.0,0.0,0.0,0.0,0.0,0.0,0.0,0.0,0.0,0.0,0.0,0.0,0.0,0.0,0.0,0.0,0.0,0.0,0.0,0.0,0.0,0.0,0.0,0.0,0.0,0.0,0.0,0.0,0.0,0.0,0.0,0.0,0.0,7.84,8.2093,8.9171,8.9902,8.9479,8.8479,8.3555,7.7323,6.986,6.1281,0.0,0.0,0.0,0.0,0.0,0.0,0.0,0.0,0.0,0.0,0.0,0.0,0.0,0.0,0.0,0.0,0.0,0.0,0.0,0.0,0.0,0.0,0.0,0.0,0.0,0.0,0.0,0.0,0.0,0.0,0.0,0.0,0.0,0.0,0.0,0.0,0.0,0.0,0.0,0.0,0.0,0.0,0.0,0.0,0.0,0.0,0.0,0.0,0.0,0.0,0.0,0.0,0.0,0.0,0.0,0.0,0.0,0.0,0.0,0.0,0.0,0.0,0.0,0.0,0.0,0.0,0.0,0.0,0.0,0.0,0.0,0.0,0.0,0.0,0.0,0.0,0.0,0.0,0.0,0.0,0.0,0.0,0.0,0.0,0.0,0.0,0.0,0.0,0.0,0.0,0.0,0.0,0.0,0.0,0.0,0.0,0.0,0.0,0.0,0.0,0.0,0.0,8.0169,8.6632,8.9594,8.9902,8.9248,8.7632,7.9977,7.3322,6.8783,5.7627,0.0,0.0,0.0,0.0,0.0,0.0,0.0,0.0,0.0,0.0,0.0,0.0,0.0,0.0,0.0,0.0,0.0,0.0,0.0,0.0,0.0,0.0,0.0,0.0,0.0,0.0,0.0,0.0,0.0,0.0,0.0,0.0,0.0,0.0,0.0,0.0,0.0,0.0,0.0,0.0,0.0,0.0,0.0,0.0,0.0,0.0,0.0,0.0,0.0,0.0,0.0,0.0,0.0,0.0,0.0,0.0,0.0,0.0,0.0,0.0,0.0,0.0,0.0,0.0,0.0,0.0,0.0,0.0,0.0,0.0,0.0,0.0,0.0,0.0,0.0,0.0,0.0,0.0,0.0,0.0,0.0,0.0,0.0,0.0,0.0,0.0,0.0,0.0,0.0,0.0,0.0,0.0,0.0,0.0,0.0,0.0,0.0,0.0,0.0,0.0,0.0,0.0,7.8054,8.3978,0.0,8.9133,8.844,8.6748,8.1246,7.4707,6.7321,0.0,0.0,0.0,0.0,0.0,0.0,0.0,0.0,0.0,0.0,0.0,0.0,0.0,0.0,0.0,0.0,0.0,0.0,0.0,0.0,0.0,0.0,0.0,0.0,0.0,0.0,0.0,0.0,0.0,0.0,0.0,0.0,0.0,0.0,0.0,0.0,0.0,0.0,0.0,0.0,0.0,0.0,0.0,0.0,0.0,0.0,0.0,0.0,0.0,0.0,0.0,0.0,0.0,0.0,0.0,0.0,0.0,0.0,0.0,0.0,0.0,0.0,0.0,0.0,0.0,0.0,0.0,0.0,0.0,0.0,0.0,0.0,0.0,0.0,0.0,0.0,0.0,0.0,0.0,0.0,0.0,0.0,0.0,0.0,0.0,0.0,0.0,0.0,0.0,0.0,0.0,0.0,0.0,0.0,0.0,0.0,0.0,0.0,0.0,0.0,0.0,0.0,7.0975,7.7852,8.3933,0.0,9.0133,8.9787,8.8666,8.2932,7.5659,6.691,0.0,0.0,0.0,0.0,0.0,0.0,0.0,0.0,0.0,0.0,0.0,0.0,0.0,0.0,0.0,0.0,0.0,0.0,0.0,0.0,0.0,0.0,0.0,0.0,0.0,0.0,0.0,0.0,0.0,0.0,0.0,0.0,0.0,0.0,0.0,0.0,0.0,0.0,0.0,0.0,0.0,0.0,0.0,0.0,0.0,0.0,0.0,0.0,0.0,0.0,0.0,0.0,0.0,0.0,0.0,0.0,0.0,0.0,0.0,0.0,0.0,0.0,0.0,0.0,0.0,0.0,0.0,0.0,0.0,0.0,0.0,0.0,0.0,0.0,0.0,0.0,0.0,0.0,0.0,0.0,0.0,0.0,0.0,0.0,0.0,0.0,0.0,0.0,0.0,0.0,0.0,0.0,0.0,0.0,0.0,0.0,0.0,0.0,0.0,0.0,0.0,0.0,7.1503,8.0461,8.7924,9.2095,9.3249,9.3785,9.3851,8.4528,7.5397,0.0,0.0,0.0,0.0,0.0,0.0,0.0,0.0,0.0,0.0,0.0,0.0,0.0,0.0,0.0,0.0,0.0,0.0,0.0,0.0,0.0,0.0,0.0,0.0,0.0,0.0,0.0,0.0,0.0,0.0,0.0,0.0,0.0,0.0,0.0,0.0,0.0,0.0,0.0,0.0,0.0,0.0,0.0,0.0,0.0,0.0,0.0,0.0,0.0,0.0,0.0,0.0,0.0,0.0,0.0,0.0,0.0,0.0,0.0,0.0,0.0,0.0,0.0,0.0,0.0,0.0,0.0,0.0,0.0,0.0,0.0,0.0,0.0,0.0,0.0,0.0,0.0,0.0,0.0,0.0,0.0,0.0,0.0,0.0,0.0,0.0,0.0,0.0,0.0,0.0,0.0,0.0,0.0,0.0,0.0,0.0,0.0,0.0,0.0,0.0,0.0,0.0,0.0,7.5089,8.5668,9.3263,9.5084,9.6043,9.5384,9.231,8.6632,7.837,6.7085,0.0,0.0,0.0,0.0,0.0,0.0,0.0,0.0,0.0,0.0,0.0,0.0,0.0,0.0,0.0,0.0,0.0,0.0,0.0,0.0,0.0,0.0,0.0,0.0,0.0,0.0,0.0,0.0,0.0,0.0,0.0,0.0,0.0,0.0,0.0,0.0,0.0,0.0,0.0,0.0,0.0,0.0,0.0,0.0,0.0,0.0,0.0,0.0,0.0,0.0,0.0,0.0,0.0,0.0,0.0,0.0,0.0,0.0,0.0,0.0,0.0,0.0,0.0,0.0,0.0,0.0,0.0,0.0,0.0,0.0,0.0,0.0,0.0,0.0,0.0,0.0,0.0,0.0,0.0,0.0,0.0,0.0,0.0,0.0,0.0,0.0,0.0,0.0,0.0,0.0,0.0,0.0,0.0,0.0,0.0,0.0,0.0,0.0,0.0,0.0,0.0,0.0,7.707,8.812,9.5985,9.7774,9.8769,9.7997,9.4723,9.062,8.2736,6.9895,0.0,0.0,0.0,0.0,0.0,0.0,0.0,0.0,0.0,0.0,0.0,0.0,0.0,0.0,0.0,0.0,0.0,0.0,0.0,0.0,0.0,0.0,0.0,0.0,0.0,0.0,0.0,0.0,0.0,0.0,0.0,0.0,0.0,0.0,0.0,0.0,0.0,0.0,0.0,0.0,0.0,0.0,0.0,0.0,0.0,0.0,0.0,0.0,0.0,0.0,0.0,0.0,0.0,0.0,0.0,0.0,0.0,0.0,0.0,0.0,0.0,0.0,0.0,0.0,0.0,0.0,0.0,0.0,0.0,0.0,0.0,0.0,0.0,0.0,0.0,0.0,0.0,0.0,0.0,0.0,0.0,0.0,0.0,0.0,0.0,0.0,0.0,0.0,0.0,0.0,0.0,0.0,0.0,0.0,0.0,0.0,0.0,0.0,0.0,0.0,0.0,0.0,7.8216,8.9107,9.7356,10.0501,10.1388,10.1114,9.9332,9.5308,8.7505,7.5074,0.0,0.0,0.0,0.0,0.0,0.0,0.0,0.0,0.0,0.0,0.0,0.0,0.0,0.0,0.0,0.0,0.0,0.0,0.0,0.0,0.0,0.0,0.0,0.0,0.0,0.0,0.0,0.0,0.0,0.0,0.0,0.0,0.0,0.0,0.0,0.0,0.0,0.0,0.0,0.0,0.0,0.0,0.0,0.0,0.0,0.0,0.0,0.0,0.0,0.0,0.0,0.0,0.0,0.0,0.0,0.0,0.0,0.0,0.0,0.0,6.7851,6.0469,0.0,0.0,0.0,0.0,0.0,0.0,0.0,0.0,0.0,0.0,0.0,0.0,0.0,0.0,0.0,0.0,0.0,0.0,0.0,0.0,0.0,0.0,0.0,0.0,0.0,0.0,0.0,0.0,0.0,0.0,0.0,0.0,0.0,0.0,0.0,0.0,0.0,0.0,0.0,0.0,8.2122,9.393,10.2515,10.4609,10.3791,10.2019,9.9569,9.5417,8.8632,7.8437,7.0281,0.0,0.0,0.0,0.0,0.0,0.0,0.0,0.0,0.0,0.0,0.0,0.0,0.0,0.0,0.0,0.0,0.0,0.0,0.0,0.0,0.0,0.0,0.0,0.0,0.0,0.0,0.0,0.0,0.0,0.0,0.0,0.0,0.0,0.0,0.0,0.0,0.0,0.0,0.0,0.0,0.0,0.0,0.0,0.0,0.0,0.0,0.0,0.0,0.0,0.0,0.0,0.0,0.0,0.0,0.0,0.0,0.0,0.0,0.0,7.9101,7.1484,0.0,0.0,0.0,0.0,0.0,0.0,0.0,0.0,0.0,0.0,0.0,0.0,0.0,0.0,0.0,0.0,0.0,0.0,0.0,0.0,0.0,0.0,0.0,0.0,0.0,0.0,0.0,0.0,0.0,0.0,0.0,0.0,0.0,0.0,0.0,0.0,0.0,0.0,0.0,0.0,8.3256,9.5529,10.3987,10.5281,10.4312,10.2294,9.9127,9.6529,9.1571,8.3359,7.6726,0.0,0.0,0.0,0.0,0.0,0.0,0.0,0.0,0.0,0.0,0.0,0.0,0.0,0.0,0.0,0.0,0.0,0.0,0.0,0.0,0.0,0.0,0.0,0.0,0.0,0.0,0.0,0.0,0.0,0.0,0.0,0.0,0.0,0.0,0.0,0.0,0.0,0.0,0.0,0.0,0.0,0.0,0.0,0.0,0.0,0.0,0.0,0.0,0.0,0.0,0.0,0.0,0.0,9.2969,9.4765,9.5273,9.9219,9.9961,9.7812,9.1367,8.5,7.8789,7.3203,0.0,0.0,0.0,0.0,0.0,0.0,0.0,0.0,0.0,0.0,0.0,0.0,0.0,0.0,0.0,0.0,0.0,0.0,0.0,0.0,0.0,0.0,7.5234,7.6328,8.0626,8.141,7.0188,0.0,0.0,0.0,0.0,0.0,0.0,0.0,0.0,0.0,0.0,0.0,8.4591,9.6097,10.3879,10.4694,10.3918,10.1992,9.8891,9.7793,9.4691,8.8585,8.3565,7.7983,0.0,0.0,0.0,0.0,0.0,0.0,0.0,0.0,0.0,0.0,0.0,0.0,0.0,0.0,0.0,0.0,0.0,0.0,0.0,0.0,0.0,0.0,0.0,0.0,0.0,0.0,0.0,0.0,0.0,0.0,0.0,0.0,6.082,5.832,0.0,0.0,0.0,0.0,0.0,0.0,0.0,0.0,0.0,0.0,0.0,0.0,0.0,8.4336,8.8437,9.7773,10.2617,10.3086,11.3008,11.7109,11.5781,11.789,11.7383,11.5,11.3984,0.0,8.7187,8.7031,0.0,0.0,0.0,0.0,0.0,0.0,0.0,0.0,0.0,0.0,0.0,0.0,0.0,0.0,0.0,0.0,0.0,0.0,0.0,0.0,0.0,0.0,9.164,9.0351,9.1796,9.2379,8.8393,7.773,6.7728,6.3902,6.0527,5.6931,0.0,0.0,0.0,0.0,0.0,0.0,9.0013,9.7988,10.3406,10.5214,10.3199,10.1207,9.9971,9.8291,9.5936,9.2766,8.9185,8.5466,8.1569,7.4316,0.0,0.0,0.0,0.0,0.0,0.0,0.0,0.0,0.0,0.0,0.0,0.0,0.0,0.0,0.0,0.0,0.0,0.0,0.0,0.0,0.0,0.0,0.0,0.0,0.0,0.0,0.0,0.0,0.0,5.9375,6.5547,6.1133,6.457,6.3711,0.0,0.0,0.0,0.0,0.0,0.0,0.0,0.0,0.0,9.2773,9.5703,9.9961,10.5781,11.1914,11.539,11.6406,12.2304,12.4218,12.2617,12.3789,12.3203,12.1093,11.9687,11.3515,10.4101,9.7695,8.9101,7.9648,0.0,0.0,0.0,0.0,7.457,7.5898,8.1211,8.207,8.0547,7.9258,0.0,0.0,0.0,0.0,0.0,0.0,0.0,7.164,7.8711,8.6367,9.2929,9.5586,9.7148,9.7617,9.5976,8.9804,8.2031,7.3594,7.0494,6.641,5.7564,5.8534,0.0,0.0,0.0,8.4509,9.151,9.8478,10.3212,10.4491,10.321,10.1696,10.0198,9.9406,9.7884,9.5307,9.3667,9.1453,8.8557,8.2264,7.5818,0.0,0.0,0.0,0.0,0.0,0.0,0.0,0.0,0.0,0.0,0.0,0.0,0.0,0.0,0.0,0.0,0.0,0.0,0.0,0.0,0.0,0.0,0.0,0.0,0.0,0.0,0.0,0.0,6.5,7.0859,6.5039,7.082,7.1328,0.0,0.0,0.0,0.0,0.0,0.0,8.7031,9.2773,9.8906,10.539,10.9101,11.3984,12.0195,12.1992,12.3593,12.5117,12.6211,12.6093,12.5117,12.5703,12.5195,12.3711,12.1484,11.9609,11.7187,10.6406,9.7812,9.1133,8.7851,8.6211,8.5859,8.7539,8.8047,8.8867,9.5664,9.6367,9.3828,9.1289,8.75,8.25,7.4805,0.0,0.0,0.0,0.0,7.6523,8.5781,9.039,9.3789,9.8242,10.0,10.039,9.9531,9.7851,9.3515,8.3359,8.0898,7.7031,6.625,6.8125,0.0,6.9952,7.9856,8.909,9.3808,9.938,10.3203,10.3906,10.3281,10.2185,10.0585,10.0382,9.9414,9.7265,9.6797,9.5742,9.3828,8.932,8.4013,7.7893,0.0,0.0,0.0,0.0,0.0,0.0,0.0,0.0,0.0,0.0,0.0,0.0,0.0,0.0,0.0,0.0,0.0,0.0,0.0,0.0,0.0,0.0,0.0,0.0,0.0,0.0,0.0,0.0,0.0,7.2383,8.1133,0.0,0.0,0.0,0.0,8.1015,8.8633,9.5273,10.039,10.789,11.4414,11.9687,12.1718,12.3593,12.5586,12.5,12.5117,12.5898,12.5312,12.5312,12.5898,12.6015,12.5508,12.4687,12.3711,12.2304,12.0117,11.3008,10.8281,10.539,10.2812,10.1797,10.1406,9.8203,9.8086,9.9414,9.9062,9.8828,9.9062,10.1289,9.5859,8.8281,8.7773,8.2383,0.0,0.0,8.4531,8.8633,9.25,9.664,9.9844,10.0195,10.0898,10.1289,10.039,9.8281,9.582,9.3515,9.1054,8.7851,8.3125,0.0,8.3203,8.4843,8.8433,9.312,9.9134,10.1718,10.3203,10.4101,10.3398,10.25,10.1599,10.0781,9.9883,9.8945,9.8086,9.7578,9.7422,9.4726,9.039,8.4334,7.7243,0.0,0.0,0.0,0.0,0.0,0.0,0.0,0.0,0.0,0.0,0.0,0.0,0.0,0.0,0.0,0.0,0.0,0.0,0.0,0.0,0.0,0.0,0.0,0.0,0.0,0.0,0.0,0.0,7.9922,8.9844,0.0,8.5312,8.8008,9.1758,9.5273,10.3281,10.9492,11.3008,11.8398,12.1797,12.25,12.4804,12.5703,12.5195,12.5508,12.5703,12.6015,12.5703,12.5508,12.5195,12.5195,12.4804,12.3906,12.3008,12.2304,12.1484,11.8515,11.539,11.2383,11.0898,11.0,10.9414,10.8789,10.8515,10.8515,10.7617,10.6211,10.4414,10.1992,9.8554,9.4922,9.2695,9.0117,8.832,9.0117,9.1719,9.3828,9.7812,10.0,10.1289,10.1797,10.2187,10.2187,10.1289,10.039,9.9414,9.8242,9.5039,9.1328,8.7539,9.0078,9.1719,8.9062,9.3931,9.8687,10.0898,10.2187,10.3008,10.3281,10.3086,10.25,10.1719,10.0781,9.9687,9.8242,9.7383,9.6679,9.6094,9.4648,9.1992,8.8047,8.2312,7.3703,0.0,0.0,0.0,0.0,0.0,0.0,0.0,0.0,0.0,0.0,0.0,0.0,0.0,0.0,0.0,0.0,0.0,0.0,0.0,0.0,0.0,0.0,0.0,0.0,0.0,0.0,9.0195,8.8203,9.7812,10.2304,9.6211,10.0312,10.4804,10.8281,11.4414,11.8789,12.0781,12.3906,12.5117,12.3984,12.5781,12.6289,12.5195,12.5508,12.5586,12.5586,12.5312,12.4883,12.4414,12.4414,12.3984,12.3515,12.289,12.2617,12.2617,12.1718,12.0,11.7812,11.6718,11.5898,11.5312,11.5,11.4609,11.3789,11.2109,10.9687,10.6992,10.3594,10.1484,9.9883,9.7617,9.6523,9.625,9.7109,9.7344,9.8086,10.1211,10.1992,10.2187,10.2812,10.289,10.2695,10.2187,10.1992,10.1914,10.1289,9.8633,9.5664,9.3047,9.6406,9.7812,9.2929,9.7812,10.1601,10.039,10.1797,10.289,10.289,10.289,10.25,10.1719,9.9726,9.8203,9.7344,9.5156,9.375,9.3476,9.1797,8.9726,8.7304,8.1655,7.4748,6.6553,0.0,0.0,0.0,0.0,0.0,0.0,0.0,0.0,0.0,0.0,0.0,0.0,0.0,0.0,0.0,0.0,0.0,0.0,0.0,0.0,0.0,0.0,0.0,8.125,9.2344,9.957,9.7265,10.5195,10.9883,10.7383,11.0312,11.4297,11.9297,12.1289,12.2617,12.3515,12.4414,12.4804,12.4804,12.5586,12.5898,12.5898,12.5117,12.4804,12.4687,12.3906,12.3515,12.3515,12.3515,12.3515,12.3515,12.3515,12.3515,12.3398,12.2617,12.2187,12.1992,12.0312,11.9609,11.9297,11.6718,11.5703,11.5195,11.1797,10.8906,10.6797,10.6719,10.5,10.3008,10.3008,10.1797,10.0586,10.1406,10.1601,10.1797,10.2695,10.289,10.289,10.289,10.289,10.289,10.289,10.289,10.289,10.289,10.2187,10.1406,10.0508,10.1797,10.1484,9.7344,10.0312,0.0,9.8281,10.0781,10.289,10.2812,10.2812,10.2383,10.1601,9.7617,9.5508,9.6367,9.1562,8.9101,8.9961,8.6797,8.4258,8.2578,7.5794,7.2263,7.2096,0.0,0.0,0.0,0.0,0.0,0.0,0.0,0.0,0.0,0.0,0.0,0.0,0.0,0.0,0.0,0.0,0.0,0.0,0.0,0.0,0.0,8.5195,9.1953,8.9726,9.7344,10.4297,10.7304,11.3281,11.7304,11.789,11.9414,12.0898,12.2304,12.3515,12.4218,12.4414,12.5195,12.539,12.4804,12.5,12.4804,12.4218,12.3984,12.3906,12.3906,12.3593,12.3515,12.3515,12.3515,12.3515,12.3515,12.3515,12.3515,12.3398,12.2617,12.2187,12.1992,12.0312,11.9609,11.9414,11.7383,11.5508,11.3593,11.1406,10.9687,10.8398,10.7109,10.6211,10.539,10.4219,10.3515,10.3008,10.2695,10.25,10.2617,10.2812,10.289,10.289,10.289,10.289,10.289,10.289,10.289,10.289,10.289,10.2695,10.25,10.2187,10.3086,10.3203,10.1406,10.2695,10.3281,10.1719,10.2304,10.2187,10.0312,10.0117,9.9726,9.8867,9.6015,9.4375,9.4609,9.0898,8.9101,8.9961,8.8476,8.7734,8.789,8.2297,7.8433,0.0,0.0,0.0,0.0,0.0,0.0,0.0,0.0,0.0,0.0,0.0,0.0,0.0,0.0,0.0,0.0,0.0,0.0,0.0,0.0,0.0,0.0,9.7031,10.4414,10.4883,10.8593,11.2617,11.6289,11.9687,12.2187,12.3203,12.3711,12.3984,12.3984,12.4492,12.4804,12.4804,12.4883,12.4687,12.4297,12.4297,12.3984,12.3515,12.3515,12.3515,12.3515,12.3515,12.3515,12.3515,12.3515,12.3515,12.3515,12.3515,12.3281,12.289,12.2383,12.1992,12.1484,0.0,0.0,0.0,0.0,11.4883,11.25,11.1484,11.0312,10.9101,10.8086,10.7304,10.6484,10.5508,10.4804,10.4101,10.3594,10.3203,10.289,10.289,10.289,10.289,10.289,10.289,10.289,10.289,10.289,10.289,10.289,10.289,0.0,10.289,10.3281,10.3086,10.1484,10.2617,10.3086,10.1484,10.2187,10.2304,10.0781,10.0586,10.0312,9.9414,9.6328,0.0,0.0,0.0,8.7773,8.6797,8.664,0.0,0.0,0.0,0.0,0.0,0.0,0.0,0.0,8.0467,7.9269,0.0,0.0,0.0,0.0,0.0,0.0,0.0,0.0,0.0,0.0,0.0,0.0,0.0,0.0,0.0,0.0,10.789,11.6093,12.1797,12.1992,12.2109,12.3515,12.4414,12.4883,12.4883,12.5,12.5,12.4883,12.4883,12.4804,12.4687,12.3906,0.0,0.0,0.0,12.3515,12.3515,12.3515,12.3515,12.3515,12.3515,12.3515,12.3515,12.3515,12.3515,12.3515,12.3515,12.3086,12.2304,12.2187,12.1601,12.0703,11.9804,11.9297,11.8789,11.6484,11.4101,11.1992,11.1797,0.0,0.0,10.9218,10.8086,10.6797,10.6601,10.5586,10.4414,10.4101,10.3594,10.3203,10.3086,10.3086,10.3203,10.3203,10.3203,10.3203,10.3203,10.3203,10.3203,10.3203,10.3203,10.3203,10.3203,10.3008,10.2109,9.9922,10.1601,10.2187,9.9883,10.1719,10.3008,10.2617,10.2617,0.0,10.1406,9.7539,9.5234,9.5351,9.0976,8.6953,8.375,8.4726,8.5664,8.6328,8.8164,9.2461,9.9297,9.9468,10.12,10.39,8.8322,8.5552,0.0,0.0,0.0,0.0,0.0,0.0,0.0,0.0,0.0,0.0,0.0,0.0,0.0,0.0,0.0,10.4883,11.3711,12.0781,12.4687,12.5703,12.5703,12.4687,12.5312,12.5781,12.5781,12.6406,12.6484,12.5781,12.5195,12.4492,12.3789,12.3593,12.3515,12.3515,12.3515,12.3515,12.3515,12.3515,12.3515,12.3515,12.3515,0.0,12.3515,12.3515,12.3515,12.3515,12.3515,12.3398,12.3203,12.25,12.1289,11.9804,11.8906,11.7304,11.539,11.4883,11.3984,11.2695,11.1289,11.0586,11.0117,10.8711,10.8008,10.75,10.6093,10.6015,0.0,10.3711,10.3984,10.4804,10.4101,10.4492,10.5,10.5,10.5,10.5,10.5,10.5,10.5,10.5,10.5,10.5,10.5,10.3789,10.3008,10.3203,10.3594,10.3789,10.3281,10.4219,10.3906,10.1094,10.0781,10.039,9.957,9.6875,9.5508,9.6211,9.4648,9.3086,9.1719,9.4453,9.5781,9.5234,9.7617,9.9609,10.1094,10.3202,10.4915,10.6116,10.1087,10.0396,0.0,0.0,0.0,0.0,0.0,0.0,0.0,0.0,0.0,0.0,0.0,8.3554,8.9531,0.0,10.5898,11.3281,11.9218,12.3593,12.5703,12.6797,12.6992,12.6211,12.6406,12.6718,12.6718,12.6289,12.6015,12.6015,12.4883,12.4101,12.4218,12.3711,12.3515,12.3515,12.3515,12.3515,12.3515,12.3515,12.3515,12.3515,12.3515,12.3515,12.3515,12.3515,12.3515,12.3515,12.3515,12.3281,12.2695,12.1406,11.9883,11.8203,11.7304,11.6211,11.5117,11.4687,11.3906,11.3086,11.2187,11.1289,11.0508,10.9609,10.8711,10.7812,10.6992,10.6719,10.6406,10.5195,10.5117,10.539,10.5,10.5195,10.5508,10.5508,10.5508,10.5508,10.5508,10.5508,10.5508,10.5508,10.5508,10.5508,10.5508,10.4804,10.4297,10.4804,10.4883,10.4883,10.4883,10.5195,10.4804,10.3086,10.289,10.2695,10.2304,10.0312,9.9062,9.9062,9.8242,9.7578,9.7109,9.914,10.0703,10.1601,10.3281,10.5,10.6797,10.8086,10.9414,11.0586,10.8685,10.7894,0.0,0.0,0.0,0.0,0.0,0.0,0.0,0.0,7.9258,8.5508,9.0117,9.5351,10.3203,10.8398,11.3789,12.0781,12.3789,12.5586,12.6406,12.7109,12.75,12.7304,12.7383,12.7383,12.7109,12.6015,12.539,12.5703,12.4492,12.3984,12.4492,12.3906,12.3515,12.3515,12.3515,12.3515,12.3515,12.3515,12.3515,12.3515,12.3515,12.3515,12.3515,12.3515,12.3515,12.3515,12.3515,12.3008,12.2109,12.0508,11.8906,11.7383,11.6406,11.5898,11.5703,11.4609,11.3789,11.3203,11.3008,11.1914,11.0586,11.039,10.9297,10.8008,10.7812,10.7383,10.6914,10.6601,10.6211,10.5898,10.5781,10.5898,10.6015,10.6015,10.6015,10.6015,10.6015,10.6015,10.6015,10.6015,10.6015,10.6015,10.6015,10.6015,10.5898,10.5781,10.5703,10.5703,10.5703,10.5898,10.5898,10.5781,10.5703,10.5703,10.5508,10.4219,10.3086,10.2383,10.1797,10.1484,10.1484,10.25,10.4219,10.6406,10.7109,10.9101,11.2383,11.2187,11.3008,11.4687,11.3281,11.2186,6.3359,6.3164,6.7031,7.1836,7.543,8.0976,0.0,0.0,9.8242,10.2109,10.8008,11.3086,11.4883,11.7617,12.0898,12.4804,12.6289,12.7304,12.8203,12.8398,12.8203,12.7383,12.8008,12.7812,12.6289,12.6718,12.6406,12.5,12.4804,12.4414,12.3711,12.3593,12.3515,12.3515,12.3515,12.3515,12.3515,12.3515,12.3515,12.3515,12.3515,12.3515,12.3515,12.3515,12.3515,12.3515,12.3515,12.3008,12.2109,12.1211,12.0195,11.9101,11.75,11.6406,11.5586,11.3984,11.3281,11.3086,11.2304,11.1406,11.0508,10.9687,10.8789,10.789,10.7109,10.7304,10.75,10.6093,10.6601,10.75,10.6797,10.7109,10.7695,10.7695,10.7695,10.7695,10.7695,10.7695,10.7695,10.7695,10.7695,10.7695,10.7695,10.7695,10.75,10.6719,10.6601,10.6601,10.6601,10.7187,10.7383,10.6601,10.6601,10.6289,10.5586,10.5312,10.5195,10.5117,10.5586,10.6015,10.6015,10.7617,10.8906,11.0,11.0117,11.1484,11.4218,11.3398,11.3906,11.5586,11.539,11.5519,7.5078,7.5508,7.8594,0.0,9.1406,9.6172,10.4609,10.789,11.0117,11.3086,11.7617,12.1093,12.1484,12.3593,12.5703,0.0,12.8281,12.9218,12.8008,12.7812,12.6992,12.4609,12.5117,12.5703,12.6015,12.5898,12.6015,12.6211,12.5781,12.5781,12.6406,12.6015,12.5703,12.5703,12.5195,12.5,12.5,12.5,12.5,12.5,12.5,12.4687,12.4297,12.4297,12.3711,12.2695,12.2695,12.1992,12.0703,12.0312,11.9609,11.8711,11.75,11.6484,11.5586,11.4414,11.3593,11.3086,11.2812,11.2109,11.1289,11.0898,10.9883,10.8711,10.8281,10.8086,10.789,10.7187,10.75,10.789,10.7617,10.8086,10.8789,10.8789,10.9101,10.9492,10.9492,10.9101,10.8789,10.8789,10.8281,10.8008,10.8008,10.8008,10.789,10.75,10.75,10.75,10.75,10.7812,10.789,10.75,10.75,10.7304,10.6992,10.7383,10.7695,10.7695,10.8515,10.8984,10.8984,10.9687,11.0703,11.2109,11.2109,11.3086,11.5195,11.4883,11.5312,11.6406,11.5898,11.6316,8.164,0.0,0.0,9.8906,10.5,11.0,11.4687,11.7383,11.9414,12.1015,12.3398,12.5117,12.5117,12.6601,12.7812,12.7695,12.9218,12.9687,12.7617,12.6718,12.5195,12.25,12.2109,12.2617,12.4101,12.4414,12.5,12.6484,12.6015,12.6211,12.75,12.7187,12.6914,12.6914,12.6289,12.6015,12.6015,12.6015,12.6015,12.6015,12.5781,12.539,12.4804,12.4297,12.3398,12.2187,12.1914,12.1015,11.9609,11.9609,11.9101,11.8203,11.7617,11.6797,11.6015,11.5117,11.4101,11.3203,11.3203,11.2617,11.1914,11.1914,11.0703,10.9297,10.9297,10.8711,10.8008,10.8008,10.8008,10.8008,10.8008,10.8593,10.9297,10.9297,11.0,11.0586,11.0586,11.0117,10.9687,10.9687,10.9101,10.8711,10.8711,10.8711,10.8711,10.8711,10.8711,10.8515,10.8086,10.8008,10.8086,10.8281,10.8398,10.8515,10.8711,10.9297,10.9687,10.9687,11.0508,11.1093,11.1289,11.1484,11.25,11.4218,11.3984,11.4687,11.6406,11.6211,11.6601,11.7304,11.6718,11.699,0.0,0.0,9.9804,10.5117,11.3515,12.1289,12.4804,12.6289,12.6718,12.6015,12.5898,12.6015,12.6015,12.6015,12.6601,12.8281,12.8593,12.8398,12.7383,12.5195,12.3281,12.2304,12.0,11.8789,11.9687,12.2109,12.3906,12.4804,12.4883,12.4883,12.4883,12.5586,12.6015,12.6015,12.6015,12.6015,12.6015,12.6015,12.6015,12.6015,12.5195,12.4804,12.4687,12.3008,12.2304,12.2187,12.1289,12.039,11.9609,11.9609,11.9101,11.8281,11.8281,11.7695,11.6914,11.6015,11.4609,11.3203,11.3203,11.2617,11.1914,11.1914,11.0703,10.9297,10.9297,10.8711,10.8008,10.8008,10.8008,10.8008,10.8008,10.8593,10.9297,10.9297,11.0,11.0586,11.0586,11.0586,11.0586,11.0586,11.0508,11.0508,11.0508,11.0508,11.0508,11.0508,11.0508,10.9883,10.8203,10.8008,10.8281,10.9218,10.9297,10.9609,11.039,11.0508,11.0586,11.0586,11.1406,11.2187,11.3086,11.3906,11.5195,11.6914,11.6093,11.6484,11.8203,11.7383,11.7383,11.8281,11.8203,11.8085,9.375,0.0,10.9414,11.6797,12.1992,12.5586,12.7304,12.8398,12.8281,12.5703,12.3398,12.1093,11.8789,11.9297,12.039,12.1601,12.5586,12.8281,12.7383,12.6093,12.3984,12.0781,11.9687,11.8789,11.8008,11.9687,12.1797,12.3789,12.5,12.6093,12.7304,12.8086,12.8593,12.8593,12.8008,12.7695,12.7695,12.7695,12.7695,12.7695,12.6914,12.5898,12.4804,12.3593,12.2109,12.0508,12.0195,11.9492,11.8711,11.8711,11.8593,11.8281,11.8281,11.7812,11.6914,11.6093,11.5,11.3984,11.3398,11.3008,11.2812,11.2812,11.1601,11.0195,11.0195,10.9101,10.8008,10.8008,10.8008,10.8086,10.8711,10.9492,11.0312,11.0898,11.1718,11.2304,11.2304,11.1914,11.1484,11.1484,11.1015,11.0586,11.0586,11.0586,11.0586,11.0586,11.0586,11.039,10.9804,10.9687,10.9804,11.0117,11.0195,11.0312,11.0586,11.1093,11.1718,11.2304,11.3086,11.3984,11.4804,11.5117,11.5781,11.6992,11.7304,11.8008,11.9218,11.8906,11.8906,11.9101,11.8593,11.8281,10.5195,11.2304,11.789,12.5586,12.8593,12.9687,12.9883,12.9687,12.8398,12.4609,11.9883,11.5508,11.2695,11.1484,11.2304,11.6289,12.0898,12.4687,12.6601,12.5586,12.3711,12.1289,11.9883,11.9101,0.0,0.0,12.0898,12.289,12.5195,12.6797,12.7617,12.8789,12.9414,12.9414,12.8906,12.8593,12.8593,12.8593,12.8086,12.7187,12.6992,12.5586,12.3398,12.2812,12.1484,11.9609,11.9297,11.8789,11.8281,11.8281,11.8281,11.8281,11.8008,11.75,11.6914,11.5703,11.5,11.4414,11.3515,11.3203,11.3203,11.3203,11.1992,11.0586,11.0586,10.9414,10.8008,10.8008,10.8203,10.8593,10.9218,11.0195,11.1211,11.1797,11.2617,11.3203,11.3203,11.2812,11.2383,11.2383,11.1914,11.1484,11.1484,11.1484,11.1484,11.1484,11.1484,11.1289,11.0703,11.0586,11.0703,11.1015,11.1093,11.1211,11.1484,11.2304,11.3086,11.3593,11.4492,11.5312,11.6093,11.6211,11.6601,11.7383,11.8008,11.8593,11.9101,11.9101,11.9101,11.9101,11.8593,11.8281,11.3008,11.9609,12.5508,13.1211,13.3203,13.3515,13.25,13.0195,12.7109,12.2812,11.5508,10.9414,0.0,0.0,10.3203,11.2617,11.5312,11.8398,12.5117,12.3984,12.2695,0.0,0.0,0.0,0.0,0.0,0.0,12.2187,12.5312,12.6914,12.6211,12.7695,12.8593,12.8593,12.8593,12.8593,12.8593,12.8593,12.7383,12.5,12.5703,12.4297,12.1015,12.0898,12.039,11.9492,11.8711,11.8281,11.8281,11.8281,11.8281,11.8203,11.7304,11.6992,11.6718,11.5117,11.4492,11.4414,11.3515,11.3203,11.3203,11.3203,11.2109,11.0703,11.0703,10.9414,10.8086,10.8086,10.8711,10.9297,10.9414,11.0703,11.1914,11.1992,11.2617,11.3203,11.3203,11.3203,11.3203,11.3203,11.3203,11.3203,11.3203,11.3203,11.3203,11.3203,11.3203,11.2617,11.0898,11.0703,11.1015,11.1797,11.1914,11.2304,11.3086,11.3984,11.4492,11.4609,11.5312,11.6211,11.6992,11.7109,11.75,11.8281,11.8398,11.8398,11.8398,11.8398,11.8515,11.8515,11.8398,11.8398,12.1797,12.8398,13.3086,13.3398,13.3086,13.2304,13.0117,12.6601,12.2617,11.8281,10.8203,9.9961,0.0,0.0,0.0,10.8398,11.6289,0.0,12.6484,12.6406,0.0,12.4609,0.0,12.1914,12.1289,12.2812,0.0,12.3203,12.4609,12.6211,12.7812,12.8398,12.8593,12.8593,12.8593,12.8593,12.8593,12.8593,12.8281,12.7617,12.6484,12.4883,12.2812,12.1484,12.0117,11.8593,11.8398,11.8281,11.8281,11.8281,11.789,11.7304,11.7109,11.6601,11.5898,11.4883,11.4492,11.4414,11.3515,11.3203,11.3203,11.3203,11.25,11.1601,11.1601,11.039,10.9101,10.9804,10.9609,10.9609,11.0898,11.1601,11.2109,11.2695,11.3008,11.3203,11.3203,11.3203,11.3203,11.3203,11.3203,11.3203,11.3203,11.3203,11.3203,11.3203,11.3203,11.2812,11.1718,11.2109,11.2383,11.1914,11.25,11.3008,11.3203,11.3984,11.4804,11.539,11.6211,11.7109,11.789,11.8008,11.8086,11.8281,11.9609,12.0195,12.0195,12.0195,12.0586,12.1211,11.9883,11.9609,12.9297,13.3984,13.6601,13.5195,13.3711,13.0703,12.3984,11.9101,11.3593,10.5117,9.5469,0.0,8.8594,8.9883,9.3945,0.0,0.0,0.0,12.6484,12.7617,12.7812,0.0,12.6797,0.0,12.5508,12.6406,12.6992,0.0,12.6601,12.7109,12.8515,12.8593,12.8593,12.8593,12.8593,12.8593,12.8593,12.8593,12.8008,12.6914,12.6289,12.4687,12.2304,12.1289,12.0195,11.8789,11.8515,11.8281,11.8281,11.8281,11.8008,11.75,11.7109,11.6484,11.5586,11.4804,11.4297,11.3906,11.3398,11.3203,11.3203,11.3203,11.2617,11.1914,11.1914,11.0898,11.0,11.0508,11.0508,11.0703,11.1601,11.2187,11.2617,11.3086,11.3203,11.3203,11.3203,11.3515,11.3906,11.4297,11.3711,11.3398,11.4218,11.3984,11.3906,11.4297,11.4297,11.3984,11.3203,11.3086,11.3008,11.25,11.3281,11.3789,11.3789,11.4883,11.5781,11.6211,11.7109,11.8008,11.8789,11.8906,11.9101,11.9414,12.039,12.0898,12.0898,12.0898,12.1211,12.1601,12.0586,12.039,13.5586,13.75,13.789,13.6718,13.4218,12.8906,11.6992,11.039,10.3008,8.9726,0.0,7.789,7.8672,8.1015,8.6836,9.914,0.0,11.6914,12.6211,12.8086,12.9218,13.1015,13.039,13.0195,13.0781,13.0312,13.0195,13.0781,12.9687,12.8906,12.8789,12.8711,12.8593,12.8593,12.8593,12.8593,12.8593,12.8593,12.75,12.5312,12.5781,12.4414,12.1601,12.1211,12.0586,11.9687,11.8906,11.8398,11.8281,11.8281,11.8203,11.8086,11.7304,11.6484,11.5586,11.4883,11.4218,11.3515,11.3515,11.3515,11.3515,11.3281,11.2695,11.2109,11.2109,11.1484,11.0781,11.0898,11.1406,11.1914,11.1992,11.2617,11.3203,11.3203,11.3281,11.3398,11.3398,11.4101,11.4883,11.5703,11.4609,11.3984,11.539,11.5117,11.4883,11.5703,11.5781,11.5508,11.4804,11.3984,11.3515,11.3398,11.4101,11.4687,11.4687,11.6093,11.6992,11.7187,11.8008,11.8906,11.9687,11.9804,12.0117,12.0898,12.1093,12.1211,12.1211,12.1211,12.1289,12.1406,12.1211,12.1093,13.9101,14.0195,14.0312,13.8007,13.3281,12.6484,11.5781,10.6797,0.0,0.0,7.832,7.4648,7.9648,8.3281,8.9922,10.3398,0.0,0.0,0.0,0.0,12.9218,0.0,0.0,0.0,0.0,0.0,0.0,0.0,13.0117,13.039,12.9687,12.8984,12.8593,12.8593,12.8593,12.8593,12.8593,12.8593,12.8398,12.789,12.6601,12.5703,12.5,12.289,12.1484,12.0586,11.9804,11.8984,11.8281,11.8281,11.789,11.7187,11.7109,11.6484,11.5781,11.5586,11.539,11.5312,11.5312,11.5312,11.5,11.3711,11.3086,11.3008,11.3008,11.2383,11.1797,11.25,11.2304,11.2109,11.2812,11.3086,11.3203,11.3203,11.3789,11.4297,11.4297,11.4883,11.5586,11.5781,11.5508,11.539,11.5586,11.5586,11.5586,11.5781,11.5781,11.5703,11.5508,11.539,11.5,11.4297,11.5,11.5508,11.5586,11.6484,11.7304,11.8008,11.8906,11.9804,12.0586,12.0703,12.0703,12.0898,12.2304,12.3008,12.3008,12.3008,12.3398,12.4101,12.2617,12.2383,14.0781,14.1484,14.1289,13.7812,13.2383,12.3789,10.8086,0.0,0.0,0.0,6.793,6.664,7.0859,7.6328,0.0,0.0,0.0,10.9492,12.039,0.0,0.0,0.0,0.0,0.0,0.0,13.2695,13.289,13.1992,13.2695,13.2383,13.0703,13.0195,12.9687,12.9297,12.9297,12.9101,12.8593,12.8593,12.8398,12.789,12.7109,12.6406,12.5898,12.3789,12.2617,12.2187,12.039,11.9414,11.8906,11.8515,11.8086,11.7695,11.7695,11.7187,11.6406,11.6406,11.6093,11.5703,11.5703,11.5703,11.5586,11.4804,11.4218,11.3789,11.3281,11.289,11.2695,11.3086,11.289,11.2812,11.3711,11.3906,11.3984,11.4414,11.4804,11.5195,11.5703,11.5703,11.6015,11.6914,11.6289,11.6015,11.6914,11.6718,11.6484,11.6992,11.7109,11.7187,11.7695,11.7695,11.7109,11.5312,11.5898,11.6406,11.6406,11.7617,11.8711,11.9609,12.0508,12.1484,12.289,12.289,12.3281,12.4218,12.5117,12.5508,12.5508,12.5508,12.5508,12.539,12.4609,12.4414,14.1406,14.2304,14.1797,13.7617,13.1601,12.1484,10.1406,9.0859,0.0,6.3047,5.918,5.9883,6.2969,0.0,7.6055,0.0,9.0351,9.9297,11.3515,11.6484,12.1093,0.0,13.4101,0.0,13.5,13.5781,0.0,13.4804,13.4883,13.3984,13.1601,13.1289,13.0781,12.9883,12.9883,12.9492,12.8593,12.8593,12.8203,12.7304,12.7304,12.6914,12.6211,12.4687,12.3906,12.3593,12.1211,11.9883,11.9492,11.8711,11.8281,11.8281,11.8281,11.789,11.7304,11.7304,11.6797,11.6289,11.6289,11.6289,11.6211,11.6015,11.5312,11.4414,11.3711,11.3515,11.3515,11.3515,11.3593,11.3906,11.4609,11.4804,11.5,11.5781,11.6015,11.6211,11.7109,11.6718,11.6718,11.8008,11.7187,11.6718,11.8086,11.7695,11.7617,11.8398,11.8398,11.8711,11.9687,11.9687,11.8906,11.6992,11.7383,11.7812,11.7617,11.8984,12.0312,12.1093,12.1992,12.3281,12.5,12.5195,12.6015,12.75,12.7812,12.7812,12.7617,12.7617,12.7109,12.6289,12.6093,12.6015,14.1015,14.2695,14.1914,13.8398,13.1211,12.0195,10.1914,0.0,7.8398,6.3398,5.9062,5.9531,6.4453,6.789,7.3515,0.0,0.0,9.7031,11.2383,11.6718,12.1992,13.2383,0.0,0.0,13.5,13.5781,13.5586,13.3984,13.4609,13.4218,13.25,13.1601,13.0781,12.9883,12.9883,12.9492,12.8593,12.8593,12.8203,12.7304,12.7304,12.7304,12.7109,12.6211,12.539,12.4609,12.2812,12.1093,11.9492,11.8711,11.8281,11.8281,11.8281,11.8281,11.8203,11.8203,11.8086,11.8086,11.8086,11.8086,11.789,11.7109,11.5781,11.4492,11.4414,11.4414,11.4414,11.4414,11.4883,11.5508,11.5586,11.5586,11.5781,11.6718,11.6914,11.7109,11.8008,11.8086,11.8086,11.8281,11.8203,11.8086,11.8281,11.8203,11.8515,11.9297,11.8789,11.8906,12.0586,12.0117,11.9804,12.039,12.0508,12.0195,11.9414,12.0195,12.1211,12.1992,12.289,12.4101,12.5781,12.6601,12.75,12.8515,12.9297,12.9297,12.8515,12.8515,12.8008,12.7187,12.6406,12.6015,13.9687,14.2812,14.2382,13.789,13.0781,11.9804,10.0586,8.8594,7.7344,6.2695,5.832,5.8086,6.1172,6.2187,6.5351,7.3984,7.5625,8.1601,9.8203,10.3203,11.0508,12.5117,12.9804,0.0,0.0,0.0,13.7617,13.6914,13.6718,13.6289,13.5586,13.4218,13.3086,13.2304,13.1211,13.0312,12.9414,12.8906,12.8398,12.8086,12.8086,12.8086,12.8086,12.7187,12.6289,12.539,12.3711,12.1992,12.0312,11.9414,11.8789,11.8281,11.8281,11.8281,11.8281,11.8281,11.8281,11.8281,11.8281,11.8281,11.8203,11.789,11.6992,11.5898,11.539,11.5312,11.5312,11.5195,11.5508,11.5781,11.6289,11.6914,11.7383,11.7695,11.7812,11.789,11.8203,11.8281,11.8281,11.8281,11.8711,11.9101,11.9101,11.9492,12.0,12.0312,12.0117,12.0312,12.1484,12.1406,12.1289,12.1601,12.1211,12.0781,12.039,12.1211,12.2109,12.289,12.4297,12.5508,12.6718,12.8086,12.8984,12.9414,13.0195,13.0312,12.9414,12.9414,12.9218,12.8906,12.8515,12.8593,13.6484,14.1015,14.1289,13.6406,12.8593,11.7304,9.8984,8.6679,7.5312,6.1953,5.7812,5.7148,5.8867,5.8711,6.0273,6.6445,6.8125,7.3789,8.8476,9.457,10.2695,11.6718,0.0,12.8711,0.0,13.6914,13.8984,13.9297,13.8515,13.8007,13.8007,13.6289,13.4883,13.3789,13.2383,13.1015,12.9883,12.8984,12.8515,12.8203,12.8203,12.8203,12.8203,12.7617,12.6797,12.5898,12.4492,12.289,12.1211,12.0312,11.9492,11.8711,11.8711,11.8711,11.8711,11.8711,11.8789,11.9101,11.9101,11.9101,11.8984,11.8789,11.8281,11.7617,11.6718,11.6289,11.6093,11.6093,11.6289,11.6601,11.7187,11.7812,11.8281,11.8281,11.8515,11.8711,11.8711,11.8906,11.9101,11.9101,11.9609,12.0,12.0,12.0508,12.1015,12.1211,12.1093,12.1289,12.2383,12.2383,12.2304,12.2617,12.1992,12.1601,12.1289,12.2109,12.2812,12.3515,12.5117,12.6406,12.7304,12.8984,13.0,13.0312,13.0898,13.0781,12.9883,12.9883,12.9883,12.9883,12.9883,13.039,13.0898,13.6992,13.789,13.3593,12.4101,11.1992,9.7265,8.3945,7.1719,6.1328,5.7812,5.7148,5.8867,5.918,6.0586,6.4922,7.1367,7.8828,8.75,9.539,10.25,0.0,0.0,12.1093,12.4609,13.3398,13.9297,14.0117,13.9414,13.8906,13.8906,13.7187,13.5508,13.3906,13.289,13.1718,12.9883,12.8984,12.8203,12.7304,12.7304,12.7304,12.7304,12.7304,12.6797,12.6015,12.5117,12.3789,12.2109,12.1211,12.039,11.9609,11.9609,11.9609,11.9609,11.9609,12.0117,12.0898,12.0898,12.0898,12.0703,11.9883,11.9609,11.9414,11.8515,11.7695,11.6992,11.6992,11.7617,11.8281,11.8281,11.8281,11.8281,11.8281,11.8984,11.9609,11.9609,12.0312,12.0898,12.0898,12.0898,12.0898,12.0898,12.0898,12.1211,12.2109,12.1484,12.1484,12.3281,12.2695,12.25,12.3398,12.3515,12.3086,12.2304,12.3008,12.3515,12.3515,12.5117,12.6406,12.7304,12.8984,13.0312,13.1211,13.1211,13.0781,12.9883,12.9883,12.9883,12.9883,12.9883,13.039,11.1015,11.5781,11.6797,11.25,10.6914,9.9336,8.6992,7.875,7.1094,6.1914,5.8672,5.7851,5.8984,5.8711,6.2031,7.3398,7.707,8.1719,9.0976,0.0,0.0,10.6289,11.8984,12.9609,0.0,13.75,13.8984,13.9297,13.9101,13.8906,13.8906,13.7812,13.6718,13.5508,13.3593,13.1914,13.0781,12.9883,12.9101,12.8203,12.8203,12.8203,12.8203,12.8203,12.7383,12.6015,12.5703,12.4297,12.2187,12.1914,12.1289,12.0508,12.0508,12.0508,12.0508,12.0508,12.0703,12.0898,12.0898,12.0898,12.0898,12.0586,12.0508,12.0312,11.9492,11.8593,11.789,11.789,11.8086,11.8398,11.8984,11.9218,11.9297,11.9883,12.0312,12.0508,12.0508,12.0703,12.0898,12.0898,12.1406,12.1797,12.1797,12.2304,12.2812,12.3008,12.289,12.289,12.3398,12.3281,12.3203,12.3515,12.3515,12.3398,12.3086,12.3281,12.3789,12.4414,12.539,12.6718,12.8086,12.9883,13.0898,13.1211,13.1797,13.1718,13.0781,13.0781,13.1093,13.1718,13.289,13.3203,9.7695,10.3203,10.4297,10.1015,9.6094,8.9844,8.1211,7.4414,6.8008,6.1328,5.8867,5.8086,5.8594,5.8281,6.1172,7.1289,7.6719,0.0,0.0,0.0,0.0,10.8281,0.0,0.0,0.0,13.9101,13.9414,13.9414,13.9101,13.8906,13.8906,13.7812,13.6914,13.6289,13.4101,13.2383,13.1211,13.0312,12.9492,12.8593,12.8593,12.8593,12.8593,12.8593,12.7617,12.6015,12.6015,12.4687,0.0,12.2695,12.2187,12.1406,12.1406,12.1406,12.1406,12.1406,12.1601,12.1914,12.1914,12.1914,12.1797,12.1484,12.1211,12.0781,12.0312,11.9297,11.8398,11.8711,11.8789,11.8906,11.9492,11.9804,12.0195,12.0781,12.1211,12.1406,12.1406,12.1601,12.1914,12.1914,12.2304,12.2695,12.2695,12.3086,12.3515,12.3515,12.3515,12.3515,12.3515,12.3515,12.3515,12.3515,12.3515,12.3593,12.3984,12.3984,12.4218,12.4804,12.5898,12.7109,12.8515,13.0,13.0898,13.1211,13.1718,13.1718,13.1211,13.1484,13.1992,13.25,13.3593,13.3789,0.0,9.5859,9.7422,9.5742,8.9336,8.2344,7.8242,7.0508,0.0,5.9883,5.8515,5.7969,5.8203,5.8125,5.914,6.2617,7.2969,0.0,0.0,0.0,0.0,0.0,11.7812,0.0,13.5508,13.8789,14.0117,14.0195,13.9414,13.8906,13.8906,13.7304,13.6406,13.6289,13.4687,13.3008,13.1211,13.039,12.9492,12.8593,12.8593,12.8593,12.8593,12.8593,12.7695,12.6093,12.6015,12.5117,12.3593,12.3593,12.3086,12.2304,12.2383,12.2304,12.2304,12.2304,12.2812,12.3515,12.3515,12.3515,12.3398,12.2617,12.1718,12.1015,12.1093,11.9804,11.8593,11.9414,11.9609,11.9609,11.9804,12.039,12.1015,12.1093,12.1718,12.2304,12.2304,12.289,12.3515,12.3515,12.3515,12.3515,12.3515,12.3515,12.3515,12.3515,12.3515,12.3515,12.3515,12.3515,12.3515,12.3515,12.3593,12.3906,12.4687,12.4804,12.4883,12.5,12.6406,12.7695,12.8711,12.9609,13.039,13.1406,13.1406,13.1406,13.1406,13.2304,13.2617,13.2617,13.2617,13.2617,6.7578,0.0,7.3515,7.2422,7.0625,6.8515,0.0,6.4414,0.0,0.0,0.0,5.8711,6.1328,6.0195,6.2969,0.0,0.0,0.0,0.0,0.0,0.0,0.0,0.0,13.1406,13.9492,13.9609,13.9492,14.0117,13.9414,13.8906,13.8906,13.789,13.6992,13.6289,13.5312,13.3593,13.1211,13.1015,13.0117,12.8593,12.8593,12.8593,12.8593,12.8593,12.8008,12.6992,12.6289,12.539,12.4492,12.4492,12.3984,12.3281,12.3906,12.3789,12.3203,12.3203,12.3281,12.3515,12.3515,12.3515,12.3515,12.3281,12.2617,12.1992,12.2695,12.1211,11.9492,12.0312,12.0117,11.9883,12.1211,12.1718,12.2109,12.2695,12.3008,12.3203,12.3203,12.3398,12.3515,12.3515,12.3515,12.3515,12.3515,12.3515,12.3515,12.3515,12.3515,12.3515,12.3515,12.3515,12.3515,12.3515,12.4101,12.4609,12.4804,12.4804,12.5312,12.6601,12.7109,12.8281,13.0508,13.0781,13.1601,13.3203,13.3203,13.3203,13.3203,13.3984,13.4101,13.3515,13.3515,13.3515,5.9258,6.2656,6.6094,6.5625,6.5195,6.4648,6.3711,0.0,0.0,0.0,0.0,0.0,6.0937,0.0,0.0,0.0,0.0,0.0,0.0,0.0,0.0,0.0,13.1992,13.4218,14.0312,14.0117,13.9492,13.9609,13.9218,13.8906,13.8906,13.8086,13.7187,13.6289,13.5508,13.3984,13.1797,13.1406,13.0508,12.9218,12.9218,12.9218,12.9218,12.9218,12.8711,12.7812,12.6992,12.6093,12.539,12.539,12.4883,12.4101,12.4609,12.4297,12.3515,12.3515,12.3515,12.3515,12.3515,12.3515,12.3515,12.3515,12.3203,12.289,12.3398,12.2187,12.0898,12.1406,12.1211,12.1015,12.1992,12.25,12.289,12.3398,12.3515,12.3515,12.3515,12.3515,12.3515,12.3515,12.3515,12.3515,12.3515,12.3515,12.3515,12.3515,12.3515,12.3515,12.3515,12.3515,12.3515,12.3515,12.4297,12.4883,12.5312,12.5703,12.6484,12.7812,12.8281,12.9492,13.1718,13.1797,13.2187,13.3203,13.2812,13.2617,13.2617,13.3398,13.3593,13.3203,13.3203,13.3203,5.8515,6.289,6.707,6.6133,6.5664,6.5312,6.4883,0.0,0.0,0.0,0.0,0.0,0.0,0.0,0.0,0.0,0.0,0.0,0.0,0.0,0.0,0.0,13.3984,13.5195,13.9804,14.0117,13.9804,13.9101,13.8984,13.8789,13.8711,13.8007,13.7109,13.6093,13.539,13.4297,13.2695,13.1718,13.0781,12.9883,12.9883,12.9883,12.9883,12.9883,12.9414,12.8515,12.75,12.6601,12.5781,12.5781,12.5312,12.4609,12.4687,12.4297,12.3515,12.3515,12.3515,12.3515,12.3515,12.3515,12.3515,12.3515,12.3515,12.3515,12.3515,12.3008,12.2383,12.2383,12.2304,12.2187,12.2383,12.289,12.3515,12.3515,12.3515,12.3515,12.3515,12.3515,12.3515,12.3515,12.3515,12.3515,12.3515,12.3515,12.3515,12.3711,12.3593,12.3593,12.3789,12.3711,12.3593,12.3711,12.4492,12.5312,12.5898,12.6914,12.789,12.8711,12.9492,13.0586,13.2187,13.2304,13.2304,13.2304,13.1601,13.1289,13.1406,13.2109,13.2617,13.2695,13.2617,13.2617,6.1211,6.5547,6.7773,6.2656,6.2969,6.3906,0.0,0.0,0.0,0.0,0.0,0.0,0.0,0.0,0.0,0.0,0.0,0.0,0.0,0.0,0.0,13.8007,0.0,13.8515,14.0117,13.9492,13.9414,14.0,13.9297,13.8593,13.7812,13.7695,13.6914,13.5312,13.5117,13.4492,13.3593,13.1992,13.0781,12.9883,12.9883,12.9883,12.9883,12.9883,12.9414,12.8515,12.6914,12.5703,12.5,12.5,12.4492,12.3789,12.4492,12.4297,12.3515,12.3515,12.3515,12.3515,12.3515,12.3515,12.3515,12.3515,12.3515,12.3515,12.3515,12.3398,12.3281,12.3281,12.2812,12.2383,12.3086,12.3398,12.3515,12.3515,12.3515,12.3515,12.3515,12.3515,12.3515,12.3515,12.3515,12.3515,12.3515,12.3515,12.3789,12.4492,12.3984,12.3984,12.539,12.4414,12.3789,12.4492,12.5312,12.5898,12.6015,12.75,12.8789,12.9609,12.9804,13.039,13.1406,13.1406,13.1406,13.1406,13.1289,13.1601,13.2304,13.2383,13.289,13.3593,13.2812,13.289,5.9023,6.3008,6.6758,6.7265,6.8984,7.0,0.0,0.0,0.0,0.0,0.0,0.0,0.0,0.0,0.0,0.0,0.0,0.0,13.039,13.0195,13.1601,0.0,0.0,13.9101,13.9492,13.9101,13.9101,13.9492,13.9101,13.8515,13.7617,13.7617,13.6797,13.5117,13.5,13.4609,13.3789,13.25,13.1718,13.1289,13.1289,13.1289,13.1289,13.0781,13.039,12.9883,12.7695,12.6797,12.6797,12.5781,12.5195,12.4804,12.4804,12.4297,12.3515,12.3515,12.3515,12.3515,12.3515,12.3515,12.3515,12.3515,12.3515,12.3515,12.3515,12.3515,12.3515,12.3515,12.3203,12.3008,12.3398,12.3515,12.3515,12.3515,12.3515,12.3593,12.4101,12.3789,12.3593,12.4101,12.4218,12.4218,12.4218,12.4609,12.5,12.539,12.4687,12.4492,12.5312,12.4297,12.3789,12.4687,12.5508,12.6211,12.6718,12.789,12.9218,13.0508,13.1015,13.1484,13.1914,13.1484,13.1015,13.0508,13.0,13.0195,13.1093,13.1601,13.2187,13.3086,13.3203,13.3398,5.8398,6.1758,6.6367,0.0,0.0,0.0,0.0,0.0,0.0,0.0,0.0,0.0,0.0,0.0,0.0,0.0,11.8281,12.4609,13.1601,13.2383,13.4297,13.9609,13.9414,13.8906,13.8906,13.8906,13.8906,13.8906,13.8906,13.8398,13.7382,13.7304,13.6484,13.4804,13.4687,13.4414,13.3789,13.3086,13.2695,13.25,13.2304,13.2304,13.25,13.1601,13.1211,13.1093,12.8711,12.789,12.8203,12.6406,12.5703,12.5586,12.4804,12.4101,12.3515,12.3515,12.3515,12.3515,12.3515,12.3515,12.3515,12.3515,12.3515,12.3515,12.3515,12.3515,12.3515,12.3515,12.3515,12.3515,12.3515,12.3515,12.3515,12.3515,12.3515,12.3711,12.4609,12.4297,12.4101,12.4883,12.5117,12.5117,12.5117,12.5586,12.6093,12.6289,12.5586,12.5195,12.5586,12.4804,12.4414,12.5312,12.5898,12.6718,12.75,12.8203,12.9297,13.1093,13.1406,13.1718,13.1914,13.1289,13.0586,12.9883,12.9414,12.9609,13.0508,13.1211,13.1992,13.2812,13.3515,13.3789,6.3633,6.582,6.8164,0.0,0.0,0.0,0.0,0.0,0.0,0.0,0.0,0.0,0.0,0.0,0.0,11.6718,12.8789,13.8086,14.039,0.0,13.9609,14.0117,13.9414,13.8906,13.8906,13.8906,13.8906,13.8906,13.8906,13.8203,13.6484,13.6406,13.5586,13.3906,13.3906,13.3906,13.3789,13.3711,13.3281,13.25,13.1718,13.1718,13.25,13.1601,13.1211,13.1093,12.9297,12.8086,12.7304,12.5586,12.4883,12.4804,12.3906,12.3593,12.3515,12.3515,12.3515,12.3515,12.3515,12.3515,12.3515,12.3515,12.3515,12.3515,12.3515,12.3515,12.3515,12.3515,12.3515,12.3515,12.3515,12.3515,12.3515,12.3515,12.3515,12.3711,12.4609,12.4804,12.4883,12.5781,12.5898,12.5898,12.5898,12.6015,12.6289,12.7109,12.6484,12.6484,12.8086,12.6914,12.6211,12.6992,12.7187,12.7617,12.8398,12.8593,12.9297,13.1093,12.9687,12.9218,13.0117,13.0,13.0,12.9883,13.0586,13.1406,13.2304,13.2383,13.289,13.3711,13.3789,13.3789,6.0273,6.418,6.9805,0.0,0.0,0.0,0.0,0.0,0.0,0.0,0.0,0.0,0.0,0.0,0.0,12.3203,13.2695,13.9492,14.1289,14.1211,14.0586,13.9492,13.9101,13.8906,13.8906,13.8906,13.8906,13.8906,13.8906,13.8398,13.7187,13.6601,13.5781,13.4609,13.4101,13.3789,13.3789,13.3281,13.3086,13.3281,13.3008,13.2695,13.25,13.2187,13.1718,13.1093,12.9414,12.8398,12.789,12.5703,12.5117,12.539,12.3984,12.3515,12.3515,12.3515,12.3515,12.3515,12.3515,12.3515,12.3515,12.3515,12.3515,12.3515,12.3515,12.3515,12.3515,12.3515,12.3515,12.3515,12.3515,12.3515,12.3515,12.3515,12.3515,12.3906,12.5195,12.5195,12.5195,12.6484,12.6797,12.6797,12.6797,12.7304,12.7695,12.8086,12.7383,12.6992,12.7695,12.6718,12.6289,12.7187,12.7812,12.8203,12.8593,12.8593,12.9101,13.0312,13.0312,13.039,13.0703,13.1211,13.1015,12.9883,13.0781,13.1601,13.25,13.25,13.289,13.3789,13.3789,13.3789,5.9492,6.3555,7.0,0.0,0.0,0.0,0.0,0.0,0.0,0.0,0.0,0.0,0.0,0.0,0.0,0.0,13.4414,13.9492,14.1289,14.1289,14.0507,13.9101,13.8906,13.8906,13.8906,13.8906,13.8906,13.8906,13.8906,13.8515,13.7617,13.6992,13.6211,13.5,13.4492,13.4101,13.3789,13.3203,13.3086,13.3398,13.3711,13.3515,13.289,13.2617,13.2187,13.1484,13.0117,12.9297,12.8789,12.6211,12.5195,12.5117,12.3906,12.3515,12.3515,12.3515,12.3515,12.3515,12.3515,12.3515,12.3515,12.3515,12.3515,12.3515,12.3515,12.3515,12.3515,12.3515,12.3515,12.3515,12.3515,12.3515,12.3515,12.3515,12.3515,12.3984,12.5586,12.5586,12.5703,12.7383,12.7695,12.7695,12.7695,12.8203,12.8593,12.8593,12.8086,12.7695,12.7695,12.7187,12.6992,12.7617,12.8203,12.8593,12.8593,12.8593,12.9101,13.0195,13.0898,13.1211,13.1211,13.1992,13.1914,13.0703,13.1601,13.2304,13.289,13.289,13.3203,13.3789,13.3789,13.3789,6.2969,6.4961,0.0,0.0,0.0,0.0,0.0,0.0,0.0,0.0,0.0,0.0,0.0,0.0,0.0,12.7812,13.4414,13.9492,14.1211,14.0703,13.9882,13.8984,13.8906,13.8906,13.8906,13.8906,13.8906,13.8906,13.8906,13.8515,13.7617,13.7617,13.6797,13.5117,13.5,13.4609,13.3789,13.3789,13.3398,13.25,13.3398,13.3789,13.3711,13.289,13.25,13.2383,13.1601,13.0703,12.9687,12.7109,12.5,12.3515,12.3515,12.3515,12.3515,12.3515,12.3515,12.3515,12.3515,12.3515,12.3515,12.3515,12.3515,12.3515,12.3515,12.3515,12.3515,12.3515,12.3515,12.3515,12.3515,12.3515,12.3515,12.3515,12.3515,12.3984,12.5586,12.6015,12.6484,12.8281,12.8593,12.8593,12.8593,12.8593,12.8593,12.8593,12.8593,12.8593,12.8593,12.8593,12.8593,12.8593,12.8593,12.8593,12.8593,12.8593,12.9297,13.1093,13.1211,13.1211,13.1211,13.1992,13.25,13.25,13.3398,13.3789,13.3789,13.3789,13.3789,13.3789,13.3789,13.3789,6.1484,0.0,0.0,0.0,0.0,0.0,0.0,0.0,0.0,0.0,0.0,0.0,0.0,0.0,0.0,12.8086,13.3906,13.8593,14.0312,14.039,13.9609,13.8203,13.8007,13.7695,13.7109,13.7109,13.7304,13.789,13.7382,13.7187,13.7617,13.6406,13.5508,13.5,13.4492,13.3984,13.3789,13.2617,13.25,13.3398,13.1797,13.1406,13.1992,13.3008,13.2383,13.0703,13.1015,13.039,12.8789,12.6797,12.5,12.3515,12.3515,12.3515,12.3515,12.3515,12.3515,12.3515,12.3515,12.3515,12.3515,12.3515,12.3515,12.3515,12.3515,12.3515,12.3515,12.3515,12.3515,12.3515,12.3515,12.3515,12.3515,12.3515,12.3515,12.3984,12.5586,12.6015,12.6484,12.8281,12.8593,12.8593,12.8593,12.8593,12.8593,12.8593,12.8593,12.8593,12.8593,12.8593,12.8593,12.8593,12.8593,12.8593,12.8593,12.8593,12.9297,13.1093,13.1211,13.1484,13.2109,13.3008,13.3086,13.25,13.3398,13.3789,13.3789,13.3789,13.3789,13.3789,13.3789,13.3789,6.8203,0.0,0.0,0.0,0.0,0.0,0.0,0.0,0.0,0.0,0.0,0.0,0.0,12.8906,0.0,13.1211,13.4687,13.7617,13.8984,13.8906,13.8086,13.6718,13.6601,13.6211,13.539,13.5312,13.5508,13.6093,13.5898,13.6015,13.6484,13.5898,13.539,13.5,13.4218,13.3789,13.3789,13.2383,13.2187,13.3281,13.1718,13.0781,13.0703,13.25,13.1992,12.9883,12.9414,12.8515,12.75,12.6093,12.4687,12.3515,12.3515,12.3515,12.3515,12.3515,12.3515,12.3515,12.3515,12.3515,12.3515,12.3515,12.3515,12.3515,12.3515,12.3515,12.3515,12.3515,12.3515,12.3515,12.3515,12.3515,12.3515,12.3515,12.3515,12.3984,12.5586,12.6015,12.6484,12.8281,12.8593,12.8593,12.8593,12.8593,12.8593,12.8593,12.8593,12.8593,12.8593,12.8593,12.8593,12.8593,12.8593,12.8593,12.8593,12.8593,12.9218,13.0586,13.0703,13.1211,13.2383,13.3281,13.3593,13.3008,13.3515,13.3789,13.3789,13.3515,13.3515,13.3789,13.3398,13.3281,0.0,0.0,0.0,0.0,0.0,0.0,0.0,0.0,0.0,0.0,0.0,0.0,13.6015,13.4414,13.3593,13.5898,13.6289,13.6601,13.7382,13.6718,13.5898,13.5,13.4804,13.4492,13.3593,13.3593,13.3593,13.3711,13.4297,13.4687,13.4804,13.539,13.5508,13.4687,13.3906,13.3593,13.3593,13.2695,13.2304,13.2383,13.2187,13.1406,13.0117,13.1718,13.1406,12.9609,12.7187,12.6015,12.5781,12.5117,12.4297,12.3515,12.3515,12.3515,12.3515,12.3515,12.3515,12.3515,12.3515,12.3515,12.3515,12.3515,12.3515,12.3515,12.3515,12.3515,12.3515,12.3515,12.3515,12.3515,12.3515,12.3515,12.3515,12.3515,12.3515,12.3906,12.5508,12.5898,12.6484,12.8203,12.8515,12.8593,12.8593,12.8593,12.8593,12.8593,12.8593,12.8593,12.8593,12.8593,12.8593,12.8593,12.8593,12.8593,12.8593,12.8593,12.8984,12.9804,12.9883,13.0586,13.2304,13.3203,13.3711,13.3789,13.3789,13.3789,13.3711,13.3008,13.289,13.3515,13.2812,13.25,0.0,0.0,0.0,0.0,0.0,0.0,0.0,0.0,0.0,0.0,0.0,13.5898,13.6211,13.5898,13.5703,13.6211,13.6289,13.6406,13.6601,13.5781,13.5,13.4218,13.3515,13.2695,13.1797,13.1797,13.1992,13.2695,13.2304,13.2304,13.3008,13.2617,13.2187,13.1992,13.1797,13.1797,13.1797,13.0898,13.0781,13.1484,13.0117,13.0,13.0898,13.1289,13.0508,12.8789,12.7617,12.6289,12.5,12.4883,12.4297,12.3515,12.3515,12.3515,12.3515,12.3515,12.3515,12.3515,12.3515,12.3515,12.3515,12.3515,12.3515,12.3515,12.3515,12.3515,12.3515,12.3515,12.3515,12.3515,12.3515,12.3515,12.3515,12.3515,12.3515,12.3789,12.4804,12.5586,12.6289,12.7383,12.8086,12.8593,12.8593,12.8593,12.8593,12.8593,12.8593,12.8593,12.8593,12.8593,12.8593,12.8593,12.8593,12.8593,12.8593,12.8593,12.8984,12.9804,12.9883,13.039,13.1406,13.2304,13.3086,13.3789,13.3789,13.3515,13.2812,13.3281,13.289,13.1797,13.2304,13.2109,0.0,0.0,0.0,0.0,0.0,0.0,0.0,0.0,0.0,13.5195,13.539,13.5703,13.5703,13.5703,13.5586,13.5195,13.539,13.5508,13.5195,13.4687,13.3984,13.2695,13.2187,13.1406,13.0117,13.0,13.0117,13.0586,13.0586,13.0781,13.1211,13.1211,13.1211,13.1211,13.0781,13.0781,13.1211,13.0312,13.0117,13.0586,12.9687,12.9492,13.0,13.0,12.9492,12.8515,12.6797,12.5586,12.4804,12.4297,12.3906,12.3515,12.3515,12.3515,12.3515,12.3515,12.3515,12.3515,12.3515,12.3515,12.3593,12.3984,12.3789,12.3593,12.3984,12.3789,12.3515,12.3515,12.3515,12.3515,12.3515,12.3515,12.3515,12.3515,12.3789,12.4218,12.4687,12.5781,12.6797,12.7187,12.8008,12.8593,12.8593,12.8593,12.8593,12.8593,12.8593,12.8593,12.8593,12.8593,12.8593,12.8593,12.8593,12.8593,12.8593,12.8593,12.8789,12.9218,12.9297,12.9687,13.0508,13.1015,13.1914,13.3203,13.3203,13.3203,13.3086,13.2695,13.2304,13.1797,13.1406,13.1015,0.0,0.0,0.0,0.0,0.0,0.0,0.0,0.0,13.2304,13.2304,13.3398,13.4297,13.4101,13.4218,13.4101,13.3281,13.3789,13.4101,13.3398,13.3203,13.2617,13.1093,13.0781,13.0195,12.8711,12.8593,12.8593,12.8593,12.9297,12.9687,12.9687,13.039,13.0781,13.0781,13.0117,13.0,13.0703,12.9883,12.9492,12.9687,12.9687,12.9218,12.8398,12.8398,12.8281,12.8008,12.5781,12.4687,12.4492,12.3789,12.3515,12.3515,12.3515,12.3515,12.3515,12.3515,12.3515,12.3515,12.3515,12.3515,12.3593,12.4297,12.4101,12.3593,12.4414,12.4101,12.3515,12.3515,12.3515,12.3515,12.3515,12.3515,12.3515,12.3515,12.4218,12.4804,12.4609,12.5898,12.6992,12.6914,12.7695,12.8398,12.8593,12.8593,12.8593,12.8593,12.8515,12.8398,12.8593,12.8515,12.8398,12.8593,12.8593,12.8593,12.8593,12.8593,12.8593,12.8593,12.8593,12.8906,12.9609,12.9687,13.039,13.1992,13.2304,13.289,13.3593,13.2109,13.1601,13.1992,13.0586,12.9804,0.0,0.0,0.0,0.0,0.0,0.0,0.0,0.0,13.1406,13.1406,13.1601,13.1484,13.0703,13.1211,13.1406,13.0586,13.1093,13.1718,13.1601,13.0898,13.0312,13.0117,12.9414,12.8906,12.8593,12.8593,12.8593,12.8593,12.8711,12.8789,12.8789,12.8906,12.8906,12.8906,12.8789,12.8789,12.8906,12.8086,12.8008,12.8789,12.8789,12.8281,12.75,12.75,12.7109,12.6289,12.5312,12.4414,12.3711,12.3515,12.3515,12.3515,12.3515,12.3515,12.3515,12.3515,12.3515,12.3515,12.3515,12.3515,12.3515,12.3593,12.3593,12.3515,12.3593,12.3593,12.3515,12.3515,12.3515,12.3515,12.3515,12.3515,12.3515,12.3515,12.4218,12.4609,12.3789,12.5,12.6015,12.5312,12.6406,12.7695,12.8515,12.8593,12.8593,12.8593,12.8008,12.7695,12.8515,12.789,12.7812,12.8515,12.8593,12.8593,12.8593,12.8593,12.8593,12.8593,12.8593,12.8711,12.8789,12.8789,12.9218,13.0195,13.1718,13.2617,13.2695,13.2383,13.1601,13.0195,13.0,12.9492,7.6133,0.0,10.8984,0.0,12.1797,12.3906,12.539,12.6718,12.75,12.6992,12.7304,12.8086,12.9609,12.9804,12.9609,12.9218,12.9492,12.9687,12.9687,12.9414,12.8984,12.8515,12.8086,12.7695,12.7187,12.7617,12.789,12.789,12.8281,12.8593,12.8593,12.8593,12.8593,12.8593,12.8593,12.8593,12.8593,12.8203,12.8203,12.8593,12.8593,12.8086,12.7304,12.6797,12.6093,12.5312,12.5,12.4297,12.3515,12.3515,12.3515,12.3515,12.3515,12.3515,12.3515,12.3515,12.3515,12.3515,12.3515,12.3515,12.3593,12.4101,12.3906,12.3593,12.4101,12.3906,12.3515,12.3515,12.3515,12.3515,12.3515,12.3515,12.3515,12.3515,12.3789,12.4101,12.4218,12.5195,12.5898,12.5508,12.6093,12.6718,12.7109,12.7109,12.7109,12.7109,12.7187,12.7383,12.7812,12.8008,12.8203,12.8593,12.8593,12.8593,12.8593,12.8593,12.8593,12.8593,12.8593,12.8593,12.8593,12.8593,12.8984,12.9883,13.1093,13.1992,13.25,13.1992,13.1406,13.0586,12.9609,12.8984,0.0,0.0,9.8789,10.8906,11.3711,11.6797,0.0,12.2109,12.3398,12.3203,12.3711,12.4883,12.75,12.7812,12.7617,12.7617,12.7812,12.789,12.789,12.789,12.7695,12.6992,12.6992,12.6718,12.6093,12.6601,12.7109,12.7304,12.789,12.8398,12.8593,12.8593,12.8593,12.8593,12.8593,12.8515,12.8281,12.8008,12.7812,12.7617,12.7812,12.75,12.6601,12.6015,12.5195,12.4492,12.4492,12.4101,12.3515,12.3515,12.3515,12.3515,12.3515,12.3515,12.3515,12.3515,12.3515,12.3515,12.3515,12.3515,12.3593,12.4297,12.3984,12.3593,12.4297,12.3984,12.3515,12.3515,12.3515,12.3398,12.3203,12.3281,12.3515,12.3515,12.3711,12.3984,12.4687,12.5312,12.5781,12.6015,12.5781,12.5781,12.6015,12.6015,12.6015,12.6015,12.6406,12.6797,12.7187,12.75,12.789,12.8515,12.8398,12.8398,12.8593,12.8593,12.8593,12.8593,12.8593,12.8593,12.8593,12.8593,12.8906,12.9609,13.039,13.1289,13.2187,13.1289,13.0898,13.0781,12.9297,12.8593,0.0,7.2422,0.0,9.0312,9.9531,10.7304,11.1484,11.6289,12.0312,12.1914,12.2304,12.2383,12.2617,12.3906,12.5,12.5,12.5586,12.6093,12.6093,12.6093,12.6093,12.6093,12.6093,12.6015,12.6015,12.6015,12.6406,12.7187,12.7304,12.7695,12.8593,12.8593,12.8593,12.8593,12.8593,12.8203,12.7383,12.6484,12.5781,12.5,12.5781,12.5703,12.4883,12.4883,12.4414,12.3593,12.3593,12.3515,12.3515,12.3515,12.3515,12.3515,12.3515,12.3515,12.3515,12.3515,12.3515,12.3515,12.3515,12.3515,12.3515,12.3593,12.3515,12.3515,12.3593,12.3515,12.3515,12.3515,12.3515,12.3281,12.25,12.289,12.3515,12.3515,12.4101,12.4687,12.4804,12.4804,12.5117,12.5898,12.539,12.5117,12.5898,12.6015,12.6015,12.6015,12.539,12.5508,12.7109,12.6015,12.5898,12.8281,12.789,12.7695,12.8515,12.8593,12.8593,12.8593,12.8593,12.8593,12.8593,12.8593,12.8593,12.8711,12.9492,13.039,13.1289,13.039,13.0,12.9883,12.8984,12.8593,0.0,0.0,0.0,8.3437,9.0586,9.7109,10.3086,10.9297,11.4297,11.6093,11.8203,11.9687,11.9687,12.1093,12.25,12.3008,12.3398,12.3789,12.4297,12.4414,12.4414,12.4414,12.4414,12.4414,12.4414,12.4883,12.5586,12.6406,12.6484,12.6797,12.7695,12.7187,12.6914,12.6914,12.75,12.7617,12.7304,12.6406,12.5898,12.5586,12.5312,12.5117,12.4804,12.4218,12.3789,12.3515,12.3515,12.3515,12.3515,12.3515,12.3515,12.3515,12.3515,12.3515,12.3515,12.3515,12.3515,12.3515,12.3515,12.3515,12.3515,12.3515,12.3515,12.3515,12.3515,12.3515,12.3515,12.3515,12.3515,12.3398,12.3086,12.3281,12.3593,12.4218,12.539,12.6289,12.5703,12.5586,12.5703,12.5898,12.539,12.5117,12.5898,12.5117,12.3789,12.2109,12.3984,12.5,12.3398,12.5117,12.6992,12.8398,12.7812,12.7695,12.8515,12.8593,12.8593,12.8593,12.8593,12.8593,12.8593,12.8593,12.8593,12.8593,12.8906,12.9492,13.039,13.0117,12.9883,12.9883,12.8984,12.8593,5.4609,0.0,0.0,7.539,8.0351,8.5742,9.5859,10.2383,10.7304,11.1093,11.4609,11.7109,11.7383,11.8593,12.0117,12.1484,12.1797,12.2109,12.289,12.3086,12.3203,12.3515,12.3515,12.3515,12.3515,12.3984,12.4687,12.5508,12.5781,12.6289,12.6797,12.6601,12.6211,12.5586,12.6211,12.6289,12.6015,12.5195,12.4687,12.4687,12.3906,12.3515,12.3515,12.3203,12.3086,12.3086,12.3398,12.3515,12.3515,12.3515,12.3515,12.3515,12.3515,12.3515,12.3515,12.3515,12.3515,12.3515,12.3515,12.3515,12.3515,12.3515,12.3515,12.3515,12.3515,12.3515,12.3515,12.3515,12.3515,12.3398,12.3086,12.3515,12.4218,12.5,12.6484,12.7617,12.6992,12.6601,12.6289,12.6093,12.5586,12.5312,12.5586,12.4687,12.3281,12.1601,12.3789,12.5,12.3281,12.5312,12.7304,12.8515,12.7812,12.7695,12.8515,12.8593,12.8593,12.8593,12.8593,12.8593,12.8593,12.8593,12.8593,12.8593,12.8593,12.8906,12.9492,12.9492,12.9492,12.9414,12.8906,12.8593,0.0,0.0,0.0,6.5195,6.8476,7.3437,8.9492,9.5234,9.9414,10.7304,11.1718,11.4414,11.5508,11.6289,11.7695,12.0312,12.0781,12.1211,12.1992,12.2187,12.25,12.3398,12.3515,12.3515,12.3515,12.3515,12.3906,12.4687,12.5508,12.5898,12.6015,12.6718,12.6484,12.4883,12.4804,12.4414,12.3515,12.2617,12.2187,12.2187,12.1289,12.0898,12.0898,12.1718,12.2187,12.2187,12.3086,12.3515,12.3515,12.3515,12.3515,12.3515,12.3515,12.3515,12.3515,12.3515,12.3515,12.3515,12.3515,12.3515,12.3515,12.3515,12.3515,12.3515,12.3515,12.3515,12.3515,12.3515,12.3515,12.3281,12.25,12.3515,12.5,12.5781,12.7304,12.8593,12.8593,12.789,12.7109,12.6211,12.6093,12.5781,12.5,12.4883,12.4804,12.4687,12.4687,12.5312,12.6914,12.6406,12.6601,12.8398,12.7812,12.7695,12.8515,12.8593,12.8593,12.8593,12.8593,12.8593,12.8593,12.8593,12.8593,12.8593,12.8593,12.8593,12.8593,12.8593,12.8593,12.8593,12.8593,12.8593,4.7093,0.0,0.0,0.0,0.0,0.0,7.3437,8.0156,8.7617,9.7929,10.2304,10.6015,11.1914,11.3711,11.4687,11.6093,11.8281,12.0312,12.1093,12.1797,12.2304,12.25,12.3086,12.3515,12.3515,12.3515,12.3789,12.4687,12.4414,12.4414,12.5117,12.4804,12.4609,12.4804,12.4218,12.3711,12.3515,12.2617,12.1914,12.1211,12.039,12.0312,12.0898,12.0508,12.1015,12.2187,12.25,12.289,12.3515,12.3515,12.3515,12.3515,12.3515,12.3515,12.3515,12.3515,12.3515,12.3515,12.3515,12.3515,12.3515,12.3515,12.3515,12.3515,12.3515,12.3515,12.3515,12.3515,12.3515,12.3593,12.3984,12.4414,12.5195,12.6601,12.7304,12.7812,12.8515,12.8398,12.8203,12.789,12.7383,12.7109,12.75,12.6484,12.5,12.3203,12.289,12.3086,12.3593,12.3398,12.4609,12.8203,12.7812,12.7695,12.8515,12.8593,12.8593,12.8593,12.8593,12.8593,12.8593,12.8593,12.8593,12.8593,12.8593,12.8593,12.8593,12.8593,12.8593,12.8593,12.8593,12.8593,0.0,0.0,0.0,0.0,0.0,0.0,6.9336,7.4336,8.0234,9.1484,9.5859,9.9687,10.6406,10.8593,11.0117,11.1992,11.5195,11.8008,11.9609,12.0586,12.1406,12.2109,12.2617,12.3086,12.3515,12.3393,12.3579,12.4204,12.3981,12.3984,12.4218,12.3789,12.3398,12.3203,12.3008,12.3008,12.3008,12.1718,12.1015,12.0898,11.9609,11.9297,11.9804,12.0,12.0703,12.1718,12.2383,12.3008,12.3515,12.3515,12.3515,12.3515,12.3515,12.3515,12.3515,12.3515,12.3515,12.3515,12.3515,12.3515,12.3515,12.3515,12.3515,12.3515,12.3515,12.3515,12.3515,12.3515,12.3515,12.3711,12.4609,12.5,12.5586,12.6992,12.7617,12.8008,12.8515,12.8593,12.8593,12.8593,12.8203,12.789,12.8008,12.7187,12.6015,12.4609,12.4297,12.4492,12.4804,12.4883,12.5781,12.8281,12.8086,12.8008,12.8593,12.8593,12.8593,12.8593,12.8593,12.8593,12.8593,12.8593,12.8593,12.8593,12.8593,12.8593,12.8593,12.8593,12.8593,12.8593,12.8593,12.8593,0.0,0.0,0.0,0.0,5.875,0.0,7.0703,7.2773,7.5078,8.5469,8.9492,9.289,9.8437,10.1015,10.3203,10.6211,11.0508,11.4414,11.7617,11.8789,12.0,12.1601,12.1914,12.2383,12.3086,12.3213,12.3284,12.3284,12.4091,12.4218,12.3398,12.3398,12.2617,12.1015,12.1718,12.1992,12.1914,12.039,11.9883,12.0586,11.8984,11.8281,11.8398,12.0,12.0781,12.1015,12.2617,12.3398,12.3515,12.3515,12.3515,12.3515,12.3515,12.3515,12.3515,12.3515,12.3515,12.3515,12.3515,12.3515,12.3515,12.3515,12.3515,12.3515,12.3515,12.3515,12.3515,12.3515,12.3515,12.3711,12.4687,12.539,12.6093,12.7187,12.8008,12.8515,12.8593,12.8593,12.8593,12.8593,12.8593,12.8398,12.7617,12.7383,12.7383,12.7304,12.6992,12.7109,12.8203,12.8008,12.789,12.8281,12.8398,12.8515,12.8515,12.8515,12.8593,12.8593,12.8593,12.8593,12.8593,12.8593,12.8593,12.8593,12.8593,12.8593,12.8593,12.8593,12.8593,12.8593,12.8593,12.8593,0.0,0.0,0.0,0.0,0.0,0.0,5.9062,6.179,6.6429,7.1405,7.3359,7.6601,8.4609,8.8047,8.9922,9.0586,9.9414,10.8593,11.5312,11.7617,11.8711,11.8984,12.0312,12.1211,12.1406,12.2002,12.2386,12.2386,12.3192,12.3281,12.25,12.25,12.1992,12.0898,12.1093,12.0781,12.0117,11.9804,11.9297,11.8789,11.8515,11.8281,11.8281,11.9414,12.0195,12.1015,12.1992,12.289,12.3515,12.3515,12.3515,12.3515,12.3515,12.3515,12.3515,12.3515,12.3515,12.3515,12.3515,12.3515,12.3515,12.3515,12.3515,12.3515,12.3515,12.3515,12.3515,12.3515,12.3515,12.3789,12.539,12.539,12.5586,12.7812,12.789,12.7695,12.8398,12.8593,12.8593,12.8593,12.8593,12.8515,12.8398,12.8281,12.8086,12.7383,12.5,12.3984,12.6211,12.4101,12.3515,12.6211,12.7109,12.7617,12.7617,12.8203,12.8593,12.8593,12.8593,12.8593,12.8593,12.8593,12.8593,12.8593,12.8593,12.8593,12.8593,12.8593,12.8593,12.8593,12.8593,12.8593,0.0,0.0,0.0,6.2733,0.0,0.0,0.0,6.0465,6.2688,6.8281,6.7734,6.8867,7.75,7.9453,8.0742,8.3789,9.2578,10.0312,10.3711,11.0898,11.5898,11.6406,11.7187,11.8008,11.8906,12.0088,12.102,12.1488,12.2308,12.2216,12.1015,12.1718,12.1797,12.0898,12.0508,12.0508,12.0898,11.9609,11.9218,11.9609,11.8711,11.8515,11.8984,11.9883,12.0508,12.1015,12.2304,12.3086,12.3515,12.3515,12.3515,12.3515,12.3515,12.3515,12.3515,12.3515,12.3515,12.3515,12.3515,12.3515,12.3515,12.3515,12.3515,12.3515,12.3515,12.3515,12.3515,12.3515,12.3515,12.3789,12.5117,12.5117,12.5195,12.6914,12.7304,12.7304,12.7304,12.7617,12.7812,12.7383,12.7304,12.7617,12.8515,12.8593,12.8515,12.8008,12.6093,12.5195,12.6484,12.5195,12.4687,12.6484,12.6992,12.75,12.789,12.8008,12.8086,12.8593,12.8593,12.8593,12.8593,12.8593,12.8593,12.8593,12.8593,12.8593,12.8593,12.8593,12.8593,12.8593,12.8593,12.8593,0.0,0.0,0.0,0.0,0.0,6.3436,0.0,0.0,0.0,6.6601,6.4531,6.3984,7.1328,7.164,7.2422,7.7305,8.4883,8.9883,8.9023,9.9648,10.8515,11.1211,11.25,11.3906,11.5586,11.6613,11.7887,11.9888,11.981,11.949,11.9097,12.0781,12.1289,12.039,11.9687,12.0,12.1406,11.9414,11.8984,12.039,11.9101,11.8789,11.9414,12.0586,12.1093,12.1015,12.2695,12.3515,12.3515,12.3515,12.3515,12.3515,12.3515,12.3515,12.3515,12.3515,12.3515,12.3515,12.3515,12.3515,12.3515,12.3515,12.3515,12.3515,12.3515,12.3515,12.3515,12.3515,12.3515,12.3711,12.4609,12.4804,12.5,12.5781,12.6484,12.6914,12.6211,12.6601,12.6797,12.6093,12.6015,12.6406,12.789,12.8086,12.8086,12.8086,12.75,12.6992,12.6992,12.6992,12.6992,12.6992,12.7187,12.7617,12.8281,12.789,12.789,12.8593,12.8593,12.8593,12.8593,12.8593,12.8593,12.8593,12.8593,12.8593,12.8593,12.8593,12.8593,12.8593,12.8593,12.8593,0.0,0.0,0.0,0.0,7.0035,0.0,0.0,0.0,6.0586,5.7656,0.0,5.8086,6.0625,0.0,0.0,6.2773,7.0703,7.6484,7.5625,8.2109,9.039,9.9648,10.5508,10.9414,11.1211,10.9388,11.0705,11.6999,11.3281,11.2704,11.7085,11.8899,11.9492,11.8593,11.8515,11.8515,11.8711,11.8398,11.8398,11.8593,11.9218,11.9101,11.8515,12.1015,12.1601,12.1015,12.2695,12.3515,12.3515,12.3515,12.3515,12.3515,12.3515,12.3515,12.3515,12.3515,12.3515,12.3515,12.3515,12.3515,12.3515,12.3515,12.3515,12.3515,12.3515,12.3515,12.3515,12.3515,12.3515,12.3711,12.4609,12.4804,12.5,12.5781,12.6093,12.6093,12.6015,12.6093,12.6093,12.6015,12.6015,12.6093,12.6289,12.6289,12.6289,12.6289,12.6211,12.6093,12.6093,12.6093,12.6093,12.6093,12.6797,12.7304,12.7383,12.8086,12.8515,12.8593,12.8593,12.8593,12.8593,12.8593,12.8593,12.8593,12.8593,12.8593,12.8593,12.8593,12.8593,12.8593,12.8593,12.8593,0.0,0.0,0.0,0.0,0.0,0.0,6.1548,0.0,5.8778,5.8973,0.0,0.0,0.0,0.0,0.0,0.0,6.5117,6.8711,6.6836,7.2969,8.0898,8.9765,9.2617,9.5701,10.0406,10.1313,10.3678,10.9096,10.7989,10.9104,11.3711,11.6093,11.7607,11.8281,11.7812,11.8008,11.8984,11.8593,11.8593,11.9101,11.8906,11.8906,11.9101,12.0195,12.0781,12.1015,12.2187,12.3008,12.3515,12.3515,12.3515,12.3515,12.3515,12.3515,12.3515,12.3515,12.3515,12.3515,12.3515,12.3515,12.3515,12.3515,12.3515,12.3515,12.3515,12.3515,12.3515,12.3515,12.3515,12.3593,12.3984,12.3984,12.4101,12.4492,12.4883,12.5195,12.4687,12.4883,12.5195,12.4609,12.4492,12.4492,12.4492,12.539,12.6211,12.6718,12.5898,12.5703,12.6601,12.6289,12.6211,12.6718,12.7109,12.75,12.8008,12.789,12.8086,12.8593,12.8593,12.8593,12.8593,12.8593,12.8593,12.8593,12.8593,12.8593,12.8593,12.8593,12.8593,12.8593,12.8593,12.8593,7.689,0.0,0.0,0.0,0.0,0.0,0.0,0.0,0.0,0.0,5.9986,0.0,0.0,0.0,5.7508,5.8864,0.0,6.2732,6.0583,6.4958,7.1405,7.9687,8.2187,8.5385,9.0914,9.1804,9.4708,10.1215,10.0688,10.321,11.0393,11.3017,11.5195,11.7183,11.7109,11.7617,11.8906,11.8515,11.8593,11.9218,11.8789,11.8906,11.9297,11.9687,12.0195,12.0586,12.1718,12.2617,12.3203,12.3398,12.3515,12.3515,12.3515,12.3515,12.3515,12.3515,12.3515,12.3515,12.3515,12.3515,12.3515,12.3515,12.3515,12.3515,12.3515,12.3515,12.3515,12.3515,12.3515,12.3515,12.3515,12.3515,12.3515,12.3515,12.3984,12.4297,12.3593,12.3984,12.4297,12.3593,12.3515,12.3515,12.3515,12.4492,12.5586,12.6484,12.5781,12.5586,12.6797,12.6797,12.6914,12.7304,12.75,12.789,12.8515,12.8008,12.789,12.8593,12.8593,12.8593,12.8593,12.8593,12.8593,12.8593,12.8593,12.8593,12.8593,12.8593,12.8593,12.8593,12.8593,12.8593,0.0,0.0,0.0,7.2633,0.0,0.0,0.0,0.0,6.2584,0.0,0.0,6.598,6.4497,6.2735,0.0,0.0,5.8566,0.0,0.0,5.6259,5.9361,6.8789,7.7265,8.3083,8.4993,8.0686,8.2645,9.4499,8.9984,9.2983,10.7395,10.9816,11.1885,11.4392,11.6087,11.6992,11.7109,11.789,11.8281,11.8398,11.9218,11.9101,11.8398,12.0117,12.039,11.9687,12.1484,12.2187,12.2304,12.3203,12.3515,12.3515,12.3515,12.3515,12.3515,12.3515,12.3515,12.3515,12.3515,12.3515,12.3515,12.3515,12.3515,12.3515,12.3515,12.3515,12.3515,12.3515,12.3515,12.3515,12.3515,12.3515,12.3515,12.3515,12.3515,12.3515,12.3515,12.3515,12.3515,12.3515,12.3515,12.3515,12.3515,12.3515,12.3906,12.4687,12.5508,12.6015,12.6015,12.75,12.8203,12.7383,12.8086,12.8593,12.8593,12.8593,12.8593,12.8593,12.8593,12.8593,12.8593,12.8593,12.8593,12.8593,12.8593,12.8593,12.8593,12.8593,12.8593,12.8593,12.8593,12.8593,8.9297,8.8545,8.6054,7.8215,7.3956,6.9798,0.0,0.0,0.0,0.0,0.0,0.0,6.617,6.3633,6.113,5.9373,5.7938,5.6337,0.0,5.3756,5.5169,5.9556,6.617,7.039,7.0423,7.1908,7.5965,8.3487,8.3777,8.9235,10.2211,10.5092,10.8488,11.3407,11.4719,11.5781,11.6992,11.7304,11.7695,11.8281,11.8619,11.8604,11.8286,11.8917,11.9283,11.9609,12.0195,12.0781,12.1406,12.1718,12.1797,12.1797,12.1797,12.2109,12.2695,12.3281,12.3515,12.3515,12.3515,12.3515,12.3515,12.3515,12.3515,12.3515,12.3515,12.3515,12.3515,12.3515,12.3515,12.3515,12.3515,12.3515,12.3515,12.3515,12.3515,12.3515,12.3515,12.3515,12.3515,12.3515,12.3515,12.3515,12.3515,12.3515,12.3789,12.4687,12.5,12.539,12.5898,12.6992,12.7617,12.7304,12.8086,12.8593,12.8593,12.8593,12.8593,12.8593,12.8593,12.8593,12.8593,12.8593,12.8593,12.8593,12.8593,12.8593,12.8593,12.8593,12.8593,12.8593,12.8593,12.8593,9.4406,9.3142,9.0326,8.4333,7.988,7.515,6.8216,6.8561,6.9918,6.8437,6.9048,7.0074,7.0782,6.6327,6.2106,6.07,5.8246,5.5517,0.0,5.278,5.3448,5.4268,5.8621,6.1832,6.2455,6.4449,6.8859,7.6492,7.7759,8.3575,9.5964,10.0485,10.4889,10.9699,11.279,11.4917,11.6093,11.6406,11.6992,11.7812,11.7817,11.8014,11.8287,11.8287,11.8592,11.9208,11.9482,11.9911,12.05,12.078,12.0898,12.0898,12.0898,12.1211,12.1797,12.2695,12.3203,12.3515,12.3515,12.3515,12.3515,12.3515,12.3515,12.3515,12.3515,12.3515,12.3515,12.3515,12.3515,12.3515,12.3515,12.3515,12.3515,12.3515,12.3515,12.3515,12.3515,12.3515,12.3515,12.3515,12.3515,12.3515,12.3515,12.3515,12.3711,12.4297,12.4609,12.4883,12.5117,12.6093,12.6718,12.6406,12.7383,12.8086,12.8086,12.8086,12.8086,12.8086,12.8086,12.8281,12.8593,12.8593,12.8593,12.8593,12.8593,12.8593,12.8593,12.8593,12.8593,12.8593,12.8593,12.8593]},{"header":{"parameterUnit":"m.s-1","parameterCategory":1,"la1":30.6,"la2":29.2853,"lo1":-89.7004,"lo2":-87.6739,"dy":0.0162,"dx":0.0183,"nx":112,"ny":82,"refTime":"2025-11-04T12:00:00:Z","depth":0,"parameterNumber":3,"parameterNumberName":"V-component_of_WINDS"},"data":[0.0,0.0,0.0,0.0,0.0,0.0,0.0,0.0,0.0,0.0,0.0,0.0,0.0,0.0,0.0,0.0,0.0,0.0,0.0,0.0,0.0,0.0,0.0,0.0,0.0,0.0,0.0,0.0,0.0,0.0,0.0,0.0,0.0,0.0,0.0,0.0,0.0,0.0,0.0,0.0,0.0,0.0,0.0,0.0,0.0,0.0,0.0,0.0,0.0,0.0,0.0,0.0,0.0,0.0,0.0,0.0,0.0,0.0,0.0,0.0,0.0,0.0,0.0,0.0,0.0,0.0,0.0,0.0,0.0,0.0,0.0,0.0,0.0,0.0,0.0,0.0,0.0,0.0,0.0,0.0,0.0,0.0,0.0,0.0,0.0,0.0,0.0,0.0,0.0,0.0,-1.2182,-1.3566,-1.5018,-1.5771,-1.5472,-1.5242,-1.4258,-1.2257,0.0,0.0,0.0,0.0,0.0,0.0,0.0,0.0,0.0,0.0,0.0,0.0,0.0,0.0,0.0,0.0,0.0,0.0,0.0,0.0,0.0,0.0,0.0,0.0,0.0,0.0,0.0,0.0,0.0,0.0,0.0,0.0,0.0,0.0,0.0,0.0,0.0,0.0,0.0,0.0,0.0,0.0,0.0,0.0,0.0,0.0,0.0,0.0,0.0,0.0,0.0,0.0,0.0,0.0,0.0,0.0,0.0,0.0,0.0,0.0,0.0,0.0,0.0,0.0,0.0,0.0,0.0,0.0,0.0,0.0,0.0,0.0,0.0,0.0,0.0,0.0,0.0,0.0,0.0,0.0,0.0,0.0,0.0,0.0,0.0,0.0,0.0,0.0,0.0,0.0,0.0,0.0,0.0,0.0,0.0,0.0,0.0,0.0,0.0,0.0,0.0,0.0,0.0,0.0,-1.2644,-1.4869,-1.5669,-1.5927,-1.5628,-1.5113,-1.4129,-1.2535,0.0,0.0,0.0,0.0,0.0,0.0,0.0,0.0,0.0,0.0,0.0,0.0,0.0,0.0,0.0,0.0,0.0,0.0,0.0,0.0,0.0,0.0,0.0,0.0,0.0,0.0,0.0,0.0,0.0,0.0,0.0,0.0,0.0,0.0,0.0,0.0,0.0,0.0,0.0,0.0,0.0,0.0,0.0,0.0,0.0,0.0,0.0,0.0,0.0,0.0,0.0,0.0,0.0,0.0,0.0,0.0,0.0,0.0,0.0,0.0,0.0,0.0,0.0,0.0,0.0,0.0,0.0,0.0,0.0,0.0,0.0,0.0,0.0,0.0,0.0,0.0,0.0,0.0,0.0,0.0,0.0,0.0,0.0,0.0,0.0,0.0,0.0,0.0,0.0,0.0,0.0,0.0,0.0,0.0,0.0,0.0,0.0,0.0,0.0,0.0,0.0,0.0,0.0,-1.2467,-1.3539,-1.5445,-1.5832,-1.5872,-1.5655,-1.5011,-1.398,-1.2481,-1.1253,0.0,0.0,0.0,0.0,0.0,0.0,0.0,0.0,0.0,0.0,0.0,0.0,0.0,0.0,0.0,0.0,0.0,0.0,0.0,0.0,0.0,0.0,0.0,0.0,0.0,0.0,0.0,0.0,0.0,0.0,0.0,0.0,0.0,0.0,0.0,0.0,0.0,0.0,0.0,0.0,0.0,0.0,0.0,0.0,0.0,0.0,0.0,0.0,0.0,0.0,0.0,0.0,0.0,0.0,0.0,0.0,0.0,0.0,0.0,0.0,0.0,0.0,0.0,0.0,0.0,0.0,0.0,0.0,0.0,0.0,0.0,0.0,0.0,0.0,0.0,0.0,0.0,0.0,0.0,0.0,0.0,0.0,0.0,0.0,0.0,0.0,0.0,0.0,0.0,0.0,0.0,0.0,0.0,0.0,0.0,0.0,0.0,0.0,0.0,0.0,0.0,0.0,-1.3824,-1.4475,-1.5723,-1.5852,-1.5778,-1.5601,-1.4733,-1.3634,-1.2318,-1.0806,0.0,0.0,0.0,0.0,0.0,0.0,0.0,0.0,0.0,0.0,0.0,0.0,0.0,0.0,0.0,0.0,0.0,0.0,0.0,0.0,0.0,0.0,0.0,0.0,0.0,0.0,0.0,0.0,0.0,0.0,0.0,0.0,0.0,0.0,0.0,0.0,0.0,0.0,0.0,0.0,0.0,0.0,0.0,0.0,0.0,0.0,0.0,0.0,0.0,0.0,0.0,0.0,0.0,0.0,0.0,0.0,0.0,0.0,0.0,0.0,0.0,0.0,0.0,0.0,0.0,0.0,0.0,0.0,0.0,0.0,0.0,0.0,0.0,0.0,0.0,0.0,0.0,0.0,0.0,0.0,0.0,0.0,0.0,0.0,0.0,0.0,0.0,0.0,0.0,0.0,0.0,0.0,0.0,0.0,0.0,0.0,0.0,0.0,0.0,0.0,0.0,0.0,-1.4136,-1.5276,-1.5798,-1.5852,-1.5737,-1.5452,-1.4102,-1.2929,-1.2128,-1.0161,0.0,0.0,0.0,0.0,0.0,0.0,0.0,0.0,0.0,0.0,0.0,0.0,0.0,0.0,0.0,0.0,0.0,0.0,0.0,0.0,0.0,0.0,0.0,0.0,0.0,0.0,0.0,0.0,0.0,0.0,0.0,0.0,0.0,0.0,0.0,0.0,0.0,0.0,0.0,0.0,0.0,0.0,0.0,0.0,0.0,0.0,0.0,0.0,0.0,0.0,0.0,0.0,0.0,0.0,0.0,0.0,0.0,0.0,0.0,0.0,0.0,0.0,0.0,0.0,0.0,0.0,0.0,0.0,0.0,0.0,0.0,0.0,0.0,0.0,0.0,0.0,0.0,0.0,0.0,0.0,0.0,0.0,0.0,0.0,0.0,0.0,0.0,0.0,0.0,0.0,0.0,0.0,0.0,0.0,0.0,0.0,0.0,0.0,0.0,0.0,0.0,0.0,-1.3763,-1.4808,0.0,-1.5716,-1.5594,-1.5296,-1.4326,-1.3173,-1.187,0.0,0.0,0.0,0.0,0.0,0.0,0.0,0.0,0.0,0.0,0.0,0.0,0.0,0.0,0.0,0.0,0.0,0.0,0.0,0.0,0.0,0.0,0.0,0.0,0.0,0.0,0.0,0.0,0.0,0.0,0.0,0.0,0.0,0.0,0.0,0.0,0.0,0.0,0.0,0.0,0.0,0.0,0.0,0.0,0.0,0.0,0.0,0.0,0.0,0.0,0.0,0.0,0.0,0.0,0.0,0.0,0.0,0.0,0.0,0.0,0.0,0.0,0.0,0.0,0.0,0.0,0.0,0.0,0.0,0.0,0.0,0.0,0.0,0.0,0.0,0.0,0.0,0.0,0.0,0.0,0.0,0.0,0.0,0.0,0.0,0.0,0.0,0.0,0.0,0.0,0.0,0.0,0.0,0.0,0.0,0.0,0.0,0.0,0.0,0.0,0.0,0.0,-1.2515,-1.3552,-1.4611,0.0,-1.5893,-1.5832,-1.5435,-1.4437,-1.3171,-1.1497,0.0,0.0,0.0,0.0,0.0,0.0,0.0,0.0,0.0,0.0,0.0,0.0,0.0,0.0,0.0,0.0,0.0,0.0,0.0,0.0,0.0,0.0,0.0,0.0,0.0,0.0,0.0,0.0,0.0,0.0,0.0,0.0,0.0,0.0,0.0,0.0,0.0,0.0,0.0,0.0,0.0,0.0,0.0,0.0,0.0,0.0,0.0,0.0,0.0,0.0,0.0,0.0,0.0,0.0,0.0,0.0,0.0,0.0,0.0,0.0,0.0,0.0,0.0,0.0,0.0,0.0,0.0,0.0,0.0,0.0,0.0,0.0,0.0,0.0,0.0,0.0,0.0,0.0,0.0,0.0,0.0,0.0,0.0,0.0,0.0,0.0,0.0,0.0,0.0,0.0,0.0,0.0,0.0,0.0,0.0,0.0,0.0,0.0,0.0,0.0,0.0,0.0,-1.2447,-1.3826,-1.4911,-1.6239,-1.6442,-1.6326,-1.5705,-1.4145,-1.2617,0.0,0.0,0.0,0.0,0.0,0.0,0.0,0.0,0.0,0.0,0.0,0.0,0.0,0.0,0.0,0.0,0.0,0.0,0.0,0.0,0.0,0.0,0.0,0.0,0.0,0.0,0.0,0.0,0.0,0.0,0.0,0.0,0.0,0.0,0.0,0.0,0.0,0.0,0.0,0.0,0.0,0.0,0.0,0.0,0.0,0.0,0.0,0.0,0.0,0.0,0.0,0.0,0.0,0.0,0.0,0.0,0.0,0.0,0.0,0.0,0.0,0.0,0.0,0.0,0.0,0.0,0.0,0.0,0.0,0.0,0.0,0.0,0.0,0.0,0.0,0.0,0.0,0.0,0.0,0.0,0.0,0.0,0.0,0.0,0.0,0.0,0.0,0.0,0.0,0.0,0.0,0.0,0.0,0.0,0.0,0.0,0.0,0.0,0.0,0.0,0.0,0.0,0.0,-1.2566,-1.3952,-1.5189,-1.5912,-1.5857,-1.5534,-1.5447,-1.4109,-1.2588,-1.0925,0.0,0.0,0.0,0.0,0.0,0.0,0.0,0.0,0.0,0.0,0.0,0.0,0.0,0.0,0.0,0.0,0.0,0.0,0.0,0.0,0.0,0.0,0.0,0.0,0.0,0.0,0.0,0.0,0.0,0.0,0.0,0.0,0.0,0.0,0.0,0.0,0.0,0.0,0.0,0.0,0.0,0.0,0.0,0.0,0.0,0.0,0.0,0.0,0.0,0.0,0.0,0.0,0.0,0.0,0.0,0.0,0.0,0.0,0.0,0.0,0.0,0.0,0.0,0.0,0.0,0.0,0.0,0.0,0.0,0.0,0.0,0.0,0.0,0.0,0.0,0.0,0.0,0.0,0.0,0.0,0.0,0.0,0.0,0.0,0.0,0.0,0.0,0.0,0.0,0.0,0.0,0.0,0.0,0.0,0.0,0.0,0.0,0.0,0.0,0.0,0.0,0.0,-1.2552,-1.3957,-1.4988,-1.5924,-1.5643,-1.5521,-1.5215,-1.415,-1.2734,-1.0914,0.0,0.0,0.0,0.0,0.0,0.0,0.0,0.0,0.0,0.0,0.0,0.0,0.0,0.0,0.0,0.0,0.0,0.0,0.0,0.0,0.0,0.0,0.0,0.0,0.0,0.0,0.0,0.0,0.0,0.0,0.0,0.0,0.0,0.0,0.0,0.0,0.0,0.0,0.0,0.0,0.0,0.0,0.0,0.0,0.0,0.0,0.0,0.0,0.0,0.0,0.0,0.0,0.0,0.0,0.0,0.0,0.0,0.0,0.0,0.0,0.0,0.0,0.0,0.0,0.0,0.0,0.0,0.0,0.0,0.0,0.0,0.0,0.0,0.0,0.0,0.0,0.0,0.0,0.0,0.0,0.0,0.0,0.0,0.0,0.0,0.0,0.0,0.0,0.0,0.0,0.0,0.0,0.0,0.0,0.0,0.0,0.0,0.0,0.0,0.0,0.0,0.0,-1.2563,-1.3715,-1.455,-1.5693,-1.5832,-1.5563,-1.5067,-1.4244,-1.3078,-1.0885,0.0,0.0,0.0,0.0,0.0,0.0,0.0,0.0,0.0,0.0,0.0,0.0,0.0,0.0,0.0,0.0,0.0,0.0,0.0,0.0,0.0,0.0,0.0,0.0,0.0,0.0,0.0,0.0,0.0,0.0,0.0,0.0,0.0,0.0,0.0,0.0,0.0,0.0,0.0,0.0,0.0,0.0,0.0,0.0,0.0,0.0,0.0,0.0,0.0,0.0,0.0,0.0,0.0,0.0,0.0,0.0,0.0,0.0,0.0,0.0,0.0,0.0,0.0,0.0,0.0,0.0,0.0,0.0,0.0,0.0,0.0,0.0,0.0,0.0,0.0,0.0,0.0,0.0,0.0,0.0,0.0,0.0,0.0,0.0,0.0,0.0,0.0,0.0,0.0,0.0,0.0,0.0,0.0,0.0,0.0,0.0,0.0,0.0,0.0,0.0,0.0,0.0,-1.1542,-1.341,-1.4636,-1.5168,-1.4818,-1.4792,-1.5325,-1.4047,-1.2654,-1.1373,-1.019,0.0,0.0,0.0,0.0,0.0,0.0,0.0,0.0,0.0,0.0,0.0,0.0,0.0,0.0,0.0,0.0,0.0,0.0,0.0,0.0,0.0,0.0,0.0,0.0,0.0,0.0,0.0,0.0,0.0,0.0,0.0,0.0,0.0,0.0,0.0,0.0,0.0,0.0,0.0,0.0,0.0,0.0,0.0,0.0,0.0,0.0,0.0,0.0,0.0,0.0,0.0,0.0,0.0,0.0,0.0,0.0,0.0,0.0,0.0,0.0,0.0,0.0,0.0,0.0,0.0,0.0,0.0,0.0,0.0,0.0,0.0,0.0,0.0,0.0,0.0,0.0,0.0,0.0,0.0,0.0,0.0,0.0,0.0,0.0,0.0,0.0,0.0,0.0,0.0,0.0,0.0,0.0,0.0,0.0,0.0,0.0,0.0,0.0,0.0,0.0,0.0,-1.1331,-1.1095,-1.1388,-1.2461,-1.1654,-1.2107,-1.4594,-1.3996,-1.3073,-1.2272,-1.1467,0.0,0.0,0.0,0.0,0.0,0.0,0.0,0.0,0.0,0.0,0.0,0.0,0.0,0.0,0.0,0.0,0.0,0.0,0.0,0.0,0.0,0.0,0.0,0.0,0.0,0.0,0.0,0.0,0.0,0.0,0.0,0.0,0.0,0.0,0.0,0.0,0.0,0.0,0.0,0.0,0.0,0.0,0.0,0.0,0.0,0.0,0.0,0.0,0.0,0.0,0.0,0.0,0.0,0.0,0.0,0.0,0.0,0.0,0.0,0.0,0.0,0.0,0.0,0.0,0.0,0.0,0.0,0.0,0.0,0.0,0.0,0.0,0.0,0.0,0.0,0.0,0.0,0.0,0.0,0.0,0.0,0.0,0.0,0.0,0.0,0.0,0.0,-0.2463,-0.4979,-0.5832,0.0,0.0,0.0,0.0,0.0,0.0,0.0,0.0,0.0,0.0,0.0,-1.0761,-0.9465,-0.8404,-0.801,-0.8407,-0.9372,-1.1267,-1.2224,-1.2466,-1.1859,-1.1373,-1.096,0.0,0.0,0.0,0.0,0.0,0.0,0.0,0.0,0.0,0.0,0.0,0.0,0.0,0.0,0.0,0.0,0.0,0.0,0.0,0.0,0.0,0.0,0.0,0.0,0.0,0.0,0.0,0.0,0.0,0.0,0.0,0.0,0.0,0.0,0.0,0.0,0.0,0.0,0.0,0.0,0.0,0.0,0.0,0.0,0.0,0.0,0.0,0.0,0.0,0.0,0.0,0.0,0.0,0.0,0.0,0.0,0.0,0.0,0.0,0.0,0.0,0.0,0.0,0.0,0.0,0.0,0.0,0.0,0.0,0.0,0.0,0.0,0.0,0.0,0.0,0.0,0.0,0.0,0.0,0.0,0.0,0.0,0.0,0.0,0.0,0.0,-0.0401,-0.0806,-0.0964,-0.0848,-0.0887,-0.0697,-0.3437,-0.4981,0.0,0.0,0.0,0.0,0.0,0.0,-0.9064,-1.1598,-1.0185,-0.2066,-0.8575,-1.0191,-0.24,-0.5366,-0.7761,-0.7708,-0.7411,-0.8606,-1.1827,-1.0941,0.0,0.0,0.0,0.0,0.0,0.0,0.0,0.0,0.0,0.0,0.0,0.0,0.0,0.0,0.0,0.0,0.0,0.0,0.0,0.0,0.0,0.0,0.0,0.0,0.0,0.0,0.0,0.0,0.0,0.0,0.0,0.0,0.0,0.0,0.0,0.0,0.0,0.0,0.0,0.0,0.0,0.0,0.0,0.0,0.0,0.0,0.0,0.0,0.0,0.0,0.0,0.0,0.0,0.0,0.0,0.0,0.0,0.0,0.0,0.0,0.0,0.0,0.0,0.0,0.0,0.0,0.0,0.0,0.0,0.0,0.0,0.0,0.0,0.0,0.0,0.0,0.0,0.0,0.0,0.0,0.0,0.0,0.0,0.0,0.0,0.0,0.0,0.0,0.0,0.0,-0.1384,-0.2174,-0.1256,-0.1533,0.0,0.0,0.0,-0.7951,-0.861,-0.7318,-0.4732,-0.0456,-0.383,-0.6665,-0.7886,-0.4992,-0.2991,-0.2912,-0.2862,-0.3593,-0.5222,-0.7197,-0.8806,0.0,0.0,0.0,0.0,0.0,0.0,0.0,0.0,0.0,0.0,0.0,0.0,0.0,0.0,0.0,0.0,0.0,0.0,0.0,0.0,0.0,0.0,0.0,0.0,0.0,0.0,0.0,0.0,0.0,0.0,0.0,0.0,0.0,0.0,0.0,0.0,0.0,0.0,0.0,0.0,0.0,0.0,0.0,0.0,0.0,0.0,0.0,0.0,0.0,0.0,0.0,0.0,0.0,0.0,0.0,0.0,0.0,0.0,0.0,0.0,0.0,0.0,0.0,0.0,0.0,0.0,0.0,0.0,0.0,0.0,0.0,0.0,0.0,0.0,0.0,0.0,0.0,0.0,0.0,0.0,0.0,0.0,0.0,0.0,0.0,0.0,0.0,0.0,0.0,0.0,0.0,0.0,0.0,0.0,-0.5352,-0.646,-0.6621,-0.6354,-0.2602,0.0,0.0,0.0,-0.2899,-1.0128,-0.4163,0.0,0.0,0.0,0.0,0.0,-0.3119,-0.5875,-0.8531,0.0,0.0,0.0,0.0,0.0,0.0,0.0,0.0,0.0,0.0,0.0,0.0,0.0,0.0,0.0,0.0,0.0,0.0,0.0,0.0,0.0,0.0,0.0,0.0,0.0,0.0,0.0,0.0,0.0,0.0,0.0,0.0,0.0,0.0,0.0,0.0,0.0,0.0,0.0,0.0,0.0,0.0,0.0,0.0,0.0,0.0,0.0,0.0,0.0,0.0,0.0,0.0,0.0,0.0,0.0,0.0,0.0,0.0,0.0,0.0,0.0,0.0,0.0,0.0,0.0,0.0,0.0,0.0,0.0,0.0,0.0,0.0,0.0,0.0,0.0,0.0,0.0,0.0,0.0,0.0,0.0,0.0,0.0,0.0,0.0,0.0,0.0,0.0,0.0,0.0,0.0,0.0,-0.0,-0.037,-0.4635,-0.6103,-0.1081,-0.0222,0.0,0.0,0.0,-0.0224,-0.0665,-0.022,0.0,0.0,0.0,0.0,0.0,-0.0207,-0.0394,-0.0552,-0.7608,0.0,0.0,0.0,0.0,0.0,0.0,0.0,0.0,0.0,0.0,0.0,0.0,0.0,0.0,0.0,0.0,0.0,0.0,0.0,0.0,0.0,0.0,0.0,0.0,0.0,0.0,0.0,0.0,0.0,0.0,0.0,0.0,0.0,0.0,0.0,0.0,0.0,0.0,0.0,0.0,0.0,0.0,0.0,0.0,0.0,0.0,0.0,0.0,0.0,0.0,0.0,0.0,0.0,0.0,0.0,0.0,0.0,0.0,0.0,0.0,0.0,0.0,0.0,0.0,0.0,0.0,0.0,0.0,0.0,0.0,0.0,0.0,0.0,0.0,0.0,0.0,0.0,0.0,0.0,0.0,0.0,0.0,0.0,0.0,0.0,0.0,0.0,0.0,0.0,0.0,0.0,0.0,0.0,-0.164,-0.2153,-0.022,0.0,0.0,0.0,0.0,0.0,0.0,0.0,0.0,0.0,0.0,0.0,0.0,0.0,0.0,0.0,-0.6117,-0.8397,0.0,0.0,0.0,0.0,0.0,0.0,0.0,0.0,0.0,0.0,0.0,0.0,0.0,0.0,0.0,0.0,0.0,0.0,0.0,0.0,0.0,0.0,0.0,0.0,0.0,0.0,0.0,0.0,0.0,0.0,0.0,0.0,0.0,0.0,0.0,0.0,0.0,0.0,0.0,0.0,0.0,0.0,0.0,0.0,0.0,0.0,0.0,0.0,0.0,0.0,0.0,0.0,0.0,0.0,0.0,0.0,0.0,0.0,0.0,0.0,0.0,0.0,0.0,0.0,0.0,0.0,0.0,0.0,0.0,0.0,0.0,0.0,0.0,0.0,0.0,0.0,0.0,0.0,0.0,0.0,0.0,0.0,0.0,0.0,0.0,0.0,0.0,0.0,0.0,0.0,0.0,0.0,0.0,0.0,0.0,0.0,0.0,0.0,0.0,0.0,0.0,0.0,0.0,0.0,0.0,0.0,0.0,0.0,0.0,0.0,-0.4815,-0.7033,-0.6555,0.0,0.0,0.0,0.0,0.0,0.0,0.0,0.0,0.0,0.0,0.0,0.0,0.0,0.0,0.0,0.0,0.0,0.0,0.0,0.0,0.0,0.0,0.0,0.0,0.0,0.0,0.0,0.0,0.0,0.0,0.0,0.0,0.0,0.0,0.0,0.0,0.0,0.0,0.0,0.0,0.0,0.0,0.0,0.0,0.0,0.0,0.0,0.0,0.0,0.0,0.0,0.0,0.0,0.0,0.0,0.0,0.0,0.0,0.0,0.0,0.0,0.0,0.0,0.0,0.0,0.0,0.0,0.0,0.0,0.0,0.0,0.0,0.0,0.0,0.0,0.0,0.0,0.0,0.0,0.0,0.0,0.0,0.0,0.0,0.0,0.0,0.0,0.0,0.0,0.0,0.0,0.0,0.0,0.0,0.0,0.0,0.0,0.0,0.0,0.0,0.0,0.0,0.0,0.0,0.0,0.0,0.0,0.0,0.0,-0.3972,-0.6322,-0.726,0.0,0.0,0.0,0.0,0.0,0.0,0.0,0.0,0.0,0.0,0.0,0.0,0.0,0.0,0.0,0.0,0.0,0.0,0.0,0.0,0.0,0.0,0.0,0.0,0.0,0.0,0.0,0.0,0.0,0.0,0.0,0.0,0.0,0.0,0.0,0.0,0.0,0.0,0.0,0.0,0.0,0.0,0.0,0.0,0.0,0.0,0.0,0.0,0.0,0.0,0.0,0.0,0.0,0.0,0.0,0.0,0.0,0.0,0.0,0.0,0.0,0.0,0.0,0.0,0.0,0.0,0.0,0.0,0.0,0.0,0.0,0.0,0.0,0.0,0.0,0.0,0.0,0.0,0.0,0.0,0.0,0.0,0.0,0.0,0.0,0.0,0.0,0.0,0.0,0.0,0.0,0.0,0.0,0.0,0.0,0.0,0.0,0.0,0.0,0.0,0.0,0.0,0.0,0.0,0.0,0.0,0.0,0.0,0.0,-0.1077,-0.3596,0.0,0.0,0.0,0.0,0.0,0.0,0.0,0.0,0.0,0.0,0.0,0.0,0.0,0.0,0.0,0.0,0.0,0.0,0.0,0.0,0.0,0.0,0.0,0.0,0.0,0.0,0.0,0.0,0.0,0.0,0.0,0.0,0.0,0.0,0.0,0.0,0.0,0.0,0.0,0.0,0.0,0.0,0.0,0.0,0.0,0.0,0.0,0.0,0.0,0.0,0.0,0.0,0.0,0.0,0.0,0.0,0.0,0.0,0.0,0.0,0.0,0.0,0.0,0.0,0.0,0.0,0.0,0.0,0.0,0.0,0.0,0.0,0.0,0.0,0.0,0.0,0.0,0.0,0.0,0.0,0.0,0.0,0.0,0.0,0.0,0.0,0.0,0.0,0.0,0.0,0.0,0.0,0.0,0.0,0.0,0.0,0.0,0.0,0.0,0.0,0.0,0.0,0.0,0.0,0.0,0.0,0.0,0.0,0.0,0.0,0.0,0.0,0.0,0.0,0.0,0.0,-1.0058,-1.0788,0.0,0.0,0.0,0.0,0.0,0.0,0.0,0.0,0.0,0.0,0.0,0.0,0.0,0.0,0.0,0.0,0.0,0.0,0.0,0.0,0.0,0.0,0.0,0.0,0.0,0.0,0.0,0.0,0.0,0.0,0.0,0.0,0.0,0.0,0.0,0.0,0.0,0.0,0.0,0.0,0.0,0.0,0.0,0.0,0.0,0.0,0.0,0.0,0.0,0.0,0.0,0.0,0.0,0.0,0.0,0.0,0.0,0.0,0.0,0.0,0.0,0.0,0.0,0.0,0.0,0.0,0.0,0.0,0.0,0.0,0.0,0.0,0.0,0.0,0.0,0.0,0.0,0.0,0.0,0.0,0.0,0.0,0.0,0.0,0.0,0.0,0.0,0.0,0.0,0.0,0.0,0.0,0.0,0.0,0.0,0.0,0.0,0.0,0.0,0.0,0.0,0.0,0.0,0.0,0.0,0.0,-0.0,-0.217,-0.5082,-0.8633,-0.9088,-1.0315,0.0,0.0,0.0,0.0,0.0,0.0,0.0,0.0,0.0,0.0,0.0,0.0,0.0,0.0,0.0,0.0,0.0,0.0,0.0,0.0,0.0,0.0,0.0,0.0,0.0,0.0,0.0,0.0,0.0,0.0,0.0,0.0,0.0,0.0,0.0,0.0,0.0,0.0,0.0,0.0,0.0,0.0,0.0,0.0,0.0,0.0,0.0,0.0,0.0,0.0,0.0,0.0,0.0,0.0,0.0,0.0,0.0,0.0,0.0,0.0,0.0,0.0,0.0,0.0,0.0,0.0,0.0,0.0,0.0,0.0,0.0,0.0,0.0,0.0,0.0,0.0,0.0,0.0,0.0,0.0,0.0,0.0,0.0,0.0,0.0,0.0,0.0,0.0,0.0,0.0,0.0,0.0,0.0,0.0,0.0,0.0,0.0,0.0,0.0,0.0,0.0,0.0,0.0,0.0,0.0,0.0,-0.0,-0.045,-0.1144,-0.1852,-0.574,-0.8342,0.0,0.0,0.0,0.0,0.0,0.0,0.0,0.0,0.0,0.0,0.0,0.0,0.0,0.0,0.0,0.0,0.0,0.0,0.0,0.0,0.0,0.0,0.0,0.0,0.0,0.0,0.0,0.0,0.0,0.0,0.0,0.0,0.0,0.0,0.0,0.0,0.0,0.0,0.0,0.0,0.0,0.0,0.0,0.0,0.0,0.0,0.0,0.0,0.0,0.0,0.0,0.0,0.0,0.0,0.0,0.0,0.0,0.0,0.0,0.0,0.0,0.0,0.0,0.0,0.0,0.0,0.0,0.0,0.0,0.0,0.0,0.0,0.0,0.0,0.0,0.0,0.0,0.0,0.0,0.0,0.0,0.0,0.0,0.0,0.0,0.0,0.0,0.0,0.0,0.0,0.0,0.0,0.0,0.0,0.0,0.0,0.0,0.0,0.0,0.0,0.0,0.0,0.0,0.0,0.0,0.0,0.0,0.0,0.0,-0.0,-0.2372,-0.4003,0.0,0.0,0.0,0.0,0.0,0.0,0.0,0.0,0.0,0.0,0.0,0.0,0.0,0.0,0.0,0.0,0.0,0.0,0.0,0.0,0.0,0.0,0.0,0.0,0.0,0.0,0.0,0.0,0.0,0.0,0.0,0.0,0.0,0.0,0.0,0.0,0.0,0.0,0.0,0.0,0.0,0.0,0.0,0.0,0.0,0.0,0.0,0.0,0.0,0.0,0.0,0.0,0.0,0.0,0.0,0.0,0.0,0.0,0.0,0.0,0.0,0.0,0.0,0.0,0.0,0.0,0.0,0.0,0.0,0.0,0.0,0.0,0.0,0.0,0.0,0.0,0.0,0.0,0.0,0.0,0.0,0.0,0.0,0.0,0.0,0.0,0.0,0.0,0.0,0.0,0.0,0.0,0.0,0.0,0.0,0.0,0.0,0.0,0.0,0.0,0.0,0.0,0.0,0.0,0.0,0.0,0.0,0.0,0.0,0.0,0.0,-0.049,0.0,0.0,0.0,0.0,0.0,0.0,0.0,0.0,0.0,0.0,0.0,0.0,0.0,0.0,0.0,0.0,0.0,0.0,0.0,0.0,0.0,0.0,0.0,0.0,0.0,0.0,0.0,0.0,0.0,0.0,0.0,0.0,0.0,0.0,0.0,0.0,0.0,0.0,0.0,0.0,0.0,0.0,0.0,0.0,0.0,0.0,0.0,0.0,0.0,0.0,0.0,0.0,0.0,0.0,0.0,0.0,0.0,0.0,0.0,0.0,0.0,0.0,0.0,0.0,0.0,0.0,0.0,0.0,0.0,0.0,0.0,0.0,0.0,0.0,0.0,0.0,0.0,0.0,0.0,0.0,0.0,0.0,0.0,0.0,0.0,0.0,0.0,0.0,0.0,0.0,0.0,0.0,0.0,0.0,0.0,0.0,0.0,0.0,0.0,0.0,0.0,0.0,0.0,0.0,0.0,0.0,0.0,0.0,0.0,0.0,0.0,-0.2521,0.0,0.0,0.0,0.0,0.0,0.0,0.0,0.0,0.0,0.0,0.0,0.0,0.0,0.0,0.0,0.0,0.0,0.0,0.0,0.0,0.0,0.0,0.0,0.0,0.0,0.0,0.0,0.0,0.0,0.0,0.0,0.0,0.0,0.0,0.0,0.0,0.0,0.0,0.0,0.0,0.0,0.0,0.0,0.0,0.0,0.0,0.0,0.0,0.0,0.0,0.0,0.0,0.0,0.0,0.0,0.0,0.0,0.0,0.0,0.0,0.0,0.0,0.0,0.0,0.0,0.0,0.0,0.0,0.0,0.0,0.0,0.0,0.0,0.0,0.0,0.0,0.0,0.0,0.0,0.0,0.0,0.0,0.0,0.0,0.0,0.0,0.0,0.0,0.0,0.0,0.0,0.0,0.0,0.0,0.0,0.0,0.0,0.0,0.0,0.0,0.0,0.0,0.0,0.0,0.0,0.0,0.0,0.0,0.0,0.0,0.0,-0.457,0.0,0.0,0.0,0.0,0.0,0.0,0.0,0.0,0.0,0.0,0.0,0.0,0.0,0.0,0.0,0.0,0.0,0.0,0.0,0.0,0.0,0.0,0.0,0.0,0.0,0.0,0.0,0.0,0.0,0.0,0.0,0.0,0.0,0.0,0.0,0.0,0.0,0.0,0.0,0.0,0.0,0.0,0.0,0.0,0.0,0.0,0.0,0.0,0.0,0.0,0.0,0.0,0.0,0.0,0.0,0.0,0.0,0.0,0.0,0.0,0.0,0.0,0.0,0.0,0.0,0.0,0.0,0.0,0.0,0.0,0.0,0.0,0.0,0.0,0.0,0.0,0.0,0.0,0.0,0.0,0.0,0.0,0.0,0.0,0.0,0.0,0.0,0.0,0.0,0.0,0.0,0.0,0.0,0.0,0.0,0.0,0.0,0.0,0.0,0.0,0.0,0.0,0.0,0.0,0.0,0.0,0.0,0.0,0.0,0.0,0.0,-0.4341,0.0,0.0,0.0,0.0,0.0,0.0,0.0,0.0,0.0,0.0,0.0,0.0,0.0,0.0,0.0,0.0,0.0,0.0,0.0,0.0,0.0,0.0,0.0,0.0,0.0,0.0,0.0,0.0,0.0,0.0,0.0,0.0,0.0,0.0,0.0,0.0,0.0,0.0,0.0,0.0,0.0,0.0,0.0,0.0,0.0,0.0,0.0,0.0,0.0,0.0,0.0,0.0,0.0,0.0,0.0,0.0,0.0,0.0,0.0,0.0,0.0,0.0,0.0,0.0,0.0,0.0,0.0,0.0,0.0,0.0,0.0,0.0,0.0,0.0,0.0,0.0,0.0,0.0,0.0,0.0,0.0,0.0,0.0,0.0,0.0,0.0,0.0,0.0,0.0,0.0,0.0,0.0,0.0,0.0,0.0,0.0,0.0,0.0,0.0,0.0,0.0,0.0,0.0,0.0,0.0,0.0,0.0,0.0,0.0,0.0,0.0,-0.0258,0.0,0.0,0.0,0.0,0.0,0.0,0.0,0.0,0.0,0.0,0.0,0.0,0.0,0.0,0.0,0.0,0.0,0.0,0.0,0.0,0.0,0.0,0.0,0.0,0.0,0.0,0.0,0.0,0.0,0.0,0.0,0.0,0.0,0.0,0.0,0.0,0.0,0.0,0.0,0.0,0.0,0.0,0.0,0.0,0.0,0.0,0.0,0.0,0.0,0.0,0.0,0.0,0.0,0.0,0.0,0.0,0.0,0.0,0.0,0.0,0.0,0.0,0.0,0.0,0.0,0.0,0.0,0.0,0.0,0.0,0.0,0.0,0.0,0.0,0.0,0.0,0.0,0.0,0.0,0.0,0.0,0.0,0.0,0.0,0.0,0.0,0.0,0.0,0.0,0.0,0.0,0.0,0.0,0.0,0.0,0.0,0.0,0.0,0.0,0.0,0.0,0.0,0.0,0.0,0.0,0.0,0.0,0.0,0.0,0.0,0.0,0.0,0.0,0.0,0.0,0.0,0.0,0.0,0.0,0.0,0.0,0.0,0.0,0.0,0.0,0.0,0.0,0.0,0.0,0.0,0.0,0.0,0.0,0.0,0.0,0.0,0.0,0.0,0.0,0.0,0.0,0.0,0.0,0.0,0.0,0.0,0.0,0.0,0.0,0.0,0.0,0.0,0.0,0.0,0.0,0.0,0.0,0.0,0.0,0.0,0.0,0.0,0.0,0.0,0.0,0.0,0.0,0.0,0.0,0.0,0.0,0.0,0.0,0.0,0.0,0.0,0.0,0.0,0.0,0.0,0.0,0.0,0.0,0.0,0.0,0.0,0.0,0.0,0.0,0.0,0.0,0.0,0.0,0.0,0.0,0.0,0.0,0.0,0.0,0.0,0.0,0.0,0.0,0.0,0.0,0.0,0.0,0.0,0.0,0.0,0.0,0.0,0.0,0.0,0.0,0.0,0.0,0.0,0.0,0.0,0.0,0.0,0.0,0.0,0.0,0.0,0.0,0.0,0.0,0.0,0.0,0.0,0.0,0.0,0.0,0.0,0.0,0.0,0.0,0.0,0.0,0.0,0.0,0.0,0.0,0.0,0.0,0.0,0.0,0.0,0.0,0.0,0.0,0.0,0.0,0.0,0.0,0.0,0.0,0.0,0.0,0.0,0.0,0.0,0.0,0.0,0.0,0.0,0.0,0.0,0.0,0.0,0.0,0.0,0.0,0.0,0.0,0.0,0.0,0.0,0.0,0.0,0.0,0.0,0.0,0.0,0.0,0.0,0.0,0.0,0.0,0.0,0.0,0.0,0.0,0.0,0.0,0.0,0.0,0.0,0.0,0.0,0.0,0.0,0.0,0.0,0.0,0.0,0.0,0.0,0.0,0.0,0.0,0.0,0.0,0.0,0.0,0.0,0.0,0.0,0.0,0.0,0.0,0.0,0.0,0.0,0.0,0.0,0.0,0.0,0.0,0.0,0.0,0.0,0.0,0.0,0.0,0.0,0.0,0.0,0.0,0.0,0.0,0.0,0.0,0.0,0.0,0.0,0.0,0.0,0.0,0.0,0.0,0.0,0.0,0.0,0.0,0.0,0.0,0.0,0.0,0.0,0.0,0.0,0.0,0.0,0.0,0.0,0.0,0.0,0.0,0.0,0.0,0.0,0.0,0.0,0.0,0.0,0.0,0.0,0.0,0.0,0.0,0.0,0.0,0.0,0.0,0.0,0.0,0.0,0.0,0.0,0.0,0.0,0.0,0.0,0.0,0.0,0.0,0.0,0.0,0.0,0.0,0.0,0.0,0.0,0.0,0.0,0.0,0.0,0.0,0.0,0.0,0.0,0.0,0.0,0.0,0.0,0.0,0.0,0.0,0.0,0.0,0.0,0.0,0.0,0.0,0.0,0.0,0.0,0.0,0.0,0.0,0.0,0.0,0.0,0.0,0.0,0.0,0.0,0.0,0.0,0.0,0.0,0.0,0.0,0.0,0.0,0.0,0.0,0.0,0.0,0.0,0.0,0.0,0.0,0.0,0.0,0.0,0.0,0.0,0.0,0.0,0.0,0.0,0.0,0.0,0.0,0.0,0.0,0.0,0.0,0.0,0.0,0.0,0.0,0.0,0.0,0.0,0.0,0.0,0.0,0.0,0.0,0.0,0.0,0.0,0.0,0.0,0.0,0.0,0.0,0.0,0.0,0.0,0.0,0.0,0.0,0.0,0.0,0.0,0.0,0.0,0.0,0.0,0.0,0.0,0.0,0.0,0.0,0.0,0.0,0.0,0.0,0.0,0.0,0.0,0.0,0.0,0.0,0.0,0.0,0.0,0.0,0.0,0.0,0.0,0.0,0.0,0.0,0.0,0.0,0.0,0.0,0.0,0.0,0.0,0.0,0.0,0.0,0.0,0.0,0.0,0.0,0.0,0.0,0.0,0.0,0.0,0.0,0.0,0.0,0.0,0.0,0.0,0.0,0.0,0.0,0.0,0.0,0.0,0.0,0.0,0.0,0.0,0.0,0.0,0.0,0.0,0.0,0.0,0.0,0.0,0.0,0.0,0.0,0.0,0.0,0.0,0.0,0.0,0.0,0.0,0.0,0.0,0.0,0.0,0.0,0.0,0.0,0.0,0.0,0.0,0.0,0.0,0.0,0.0,0.0,0.0,0.0,0.0,0.0,0.0,0.0,0.0,0.0,0.0,0.0,0.0,0.0,0.0,0.0,0.0,0.0,0.0,0.0,0.0,0.0,0.0,0.0,0.0,0.0,0.0,0.0,0.0,0.0,0.0,0.0,0.0,0.0,0.0,0.0,0.0,0.0,0.0,0.0,0.0,0.0,0.0,0.0,0.0,0.0,0.0,0.0,0.0,0.0,0.0,0.0,0.0,0.0,0.0,0.0,0.0,0.0,0.0,0.0,0.0,0.0,0.0,0.0,0.0,0.0,0.0,0.0,0.0,0.0,0.0,0.0,0.0,0.0,0.0,0.0,0.0,0.0,0.0,0.0,0.0,0.0,0.0,0.0,0.0,0.0,0.0,0.0,0.0,0.0,0.0,0.0,0.0,0.0,0.0,0.0,0.0,0.0,0.0,0.0,0.0,0.0,0.0,0.0,0.0,0.0,0.0,0.0,0.0,0.0,0.0,0.0,0.0,0.0,0.0,0.0,0.0,0.0,0.0,0.0,0.0,0.0,0.0,0.0,0.0,0.0,0.0,0.0,0.0,0.0,0.0,0.0,0.0,0.0,0.0,0.0,0.0,0.0,0.0,0.0,0.0,0.0,0.0,0.0,0.0,0.0,0.0,0.0,0.0,0.0,0.0,0.0,0.0,0.0,0.0,0.0,0.0,0.0,0.0,0.0,0.0,0.0,0.0,0.0,0.0,0.0,0.0,0.0,0.0,0.0,0.0,0.0,0.0,0.0,0.0,0.0,0.0,0.0,0.0,0.0,0.0,0.0,0.0,0.0,0.0,0.0,0.0,0.0,0.0,0.0,0.0,0.0,0.0,0.0,0.0,0.0,0.0,0.0,0.0,0.0,0.0,0.0,0.0,0.0,0.0,0.0,0.0,0.0,0.0,0.0,0.0,0.0,0.0,0.0,0.0,0.0,0.0,0.0,0.0,0.0,0.0,0.0,0.0,0.0,0.0,0.0,0.0,0.0,0.0,0.0,0.0,0.0,0.0,0.0,0.0,0.0,0.0,0.0,0.0,0.0,0.0,0.0,0.0,0.0,0.0,0.0,0.0,0.0,0.0,0.0,0.0,0.0,0.0,0.0,0.0,0.0,0.0,0.0,0.0,0.0,0.0,0.0,0.0,0.0,0.0,0.0,0.0,0.0,0.0,0.0,0.0,0.0,0.0,0.0,0.0,0.0,0.0,0.0,0.0,0.0,0.0,0.0,0.0,0.0,0.0,0.0,0.0,0.0,0.0,0.0,0.0,0.0,0.0,0.0,0.0,0.0,0.0,0.0,0.0,0.0,0.0,0.0,0.0,0.0,0.0,0.0,0.0,0.0,0.0,0.0,0.0,0.0,0.0,0.0,0.0,0.0,0.0,0.0,0.0,0.0,0.0,0.0,0.0,0.0,0.0,0.0,0.0,0.0,0.0,0.0,0.0,0.0,0.0,0.0,0.0,0.0,0.0,0.0,0.0,0.0,0.0,0.0,0.0,0.0,0.0,0.0,0.0,0.0,0.0,0.0,0.0,0.0,0.0,0.0,0.0,0.0,0.0,0.0,0.0,0.0,0.0,0.0,0.0,0.0,0.0,0.0,0.0,0.0,0.0,0.0,0.0,0.0,0.0,0.0,0.0,0.0,0.0,0.0,0.0,0.0,0.0,0.0,0.0,0.0,0.0,0.0,0.0,0.0,0.0,0.0,0.0,0.0,0.0,0.0,0.0,0.0,0.0,0.0,0.0,0.0,0.0,0.0,0.0,0.0,0.0,0.0,0.0,0.0,0.0,0.0,0.0,0.0,0.0,0.0,0.0,0.0,0.0,0.0,0.0,0.0,0.0,0.0,0.0,0.0,0.0,0.0,0.0,0.0,0.0,0.0,0.0,0.0,0.0,0.0,0.0,0.0,0.0,0.0,0.0,0.0,0.0,0.0,0.0,0.0,0.0,0.0,0.0,0.0,0.0,0.0,0.0,0.0,0.0,0.0,0.0,0.0,0.0,0.0,0.0,0.0,0.0,0.0,0.0,0.0,0.0,0.0,0.0,0.0,0.0,0.0,0.0,0.0,0.0,0.0,0.0,0.0,0.0,0.0,0.0,0.0,0.0,0.0,0.0,0.0,0.0,0.0,0.0,0.0,0.0,0.0,0.0,0.0,0.0,0.0,0.0,0.0,0.0,0.0,0.0,0.0,0.0,0.0,0.0,0.0,0.0,0.0,0.0,0.0,0.0,0.0,0.0,0.0,0.0,0.0,0.0,0.0,0.0,0.0,0.0,0.0,0.0,0.0,0.0,0.0,0.0,0.0,0.0,0.0,0.0,0.0,0.0,0.0,0.0,0.0,0.0,0.0,0.0,0.0,0.0,0.0,0.0,0.0,0.0,0.0,0.0,0.0,0.0,0.0,0.0,0.0,0.0,0.0,0.0,0.0,0.0,0.0,0.0,0.0,0.0,0.0,0.0,0.0,0.0,0.0,0.0,0.0,0.0,0.0,0.0,0.0,0.0,0.0,0.0,0.0,0.0,0.0,0.0,0.0,0.0,0.0,0.0,0.0,0.0,0.0,0.0,0.0,0.0,0.0,0.0,0.0,0.0,0.0,0.0,0.0,0.0,0.0,0.0,0.0,0.0,0.0,0.0,0.0,0.0,0.0,0.0,0.0,0.0,0.0,0.0,0.0,0.0,0.0,0.0,0.0,0.0,0.0,0.0,0.0,0.0,0.0,0.0,0.0,0.0,0.0,0.0,0.0,0.0,0.0,0.0,0.0,0.0,0.0,0.0,0.0,0.0,0.0,0.0,0.0,0.0,0.0,0.0,0.0,0.0,0.0,0.0,0.0,0.0,0.0,0.0,0.0,0.0,0.0,0.0,0.0,0.0,0.0,0.0,0.0,0.0,0.0,0.0,0.0,0.0,0.0,0.0,0.0,0.0,0.0,0.0,0.0,0.0,0.0,0.0,0.0,0.0,0.0,0.0,0.0,0.0,0.0,0.0,0.0,0.0,0.0,0.0,0.0,0.0,0.0,0.0,0.0,0.0,0.0,0.0,0.0,0.0,0.0,0.0,0.0,0.0,0.0,0.0,0.0,0.0,0.0,0.0,0.0,0.0,0.0,0.0,0.0,0.0,0.0,0.0,0.0,0.0,0.0,0.0,0.0,0.0,0.0,0.0,0.0,0.0,0.0,0.0,0.0,0.0,0.0,0.0,0.0,0.0,0.0,0.0,0.0,0.0,0.0,0.0,0.0,0.0,0.0,0.0,0.0,0.0,0.0,0.0,0.0,0.0,0.0,0.0,0.0,0.0,0.0,0.0,0.0,0.0,0.0,0.0,0.0,0.0,0.0,0.0,0.0,0.0,0.0,0.0,0.0,0.0,0.0,0.0,0.0,0.0,0.0,0.0,0.0,0.0,0.0,0.0,0.0,0.0,0.0,0.0,0.0,0.0,0.0,0.0,0.0,0.0,0.0,0.0,0.0,0.0,0.0,0.0,0.0,0.0,0.0,0.0,0.0,0.0,0.0,0.0,0.0,0.0,0.0,0.0,0.0,0.0,0.0,0.0,0.0,0.0,0.0,0.0,0.0,0.0,0.0,0.0,0.0,0.0,0.0,0.0,0.0,0.0,0.0,0.0,0.0,0.0,0.0,0.0,0.0,0.0,0.0,0.0,0.0,0.0,0.0,0.0,0.0,0.0,0.0,0.0,0.0,0.0,0.0,0.0,0.0,0.0,0.0,0.0,0.0,0.0,0.0,0.0,0.0,0.0,0.0,0.0,0.0,0.0,0.0,0.0,0.0,0.0,0.0,0.0,0.0,0.0,0.0,0.0,0.0,0.0,0.0,0.0,0.0,0.0,0.0,0.0,0.0,0.0,0.0,0.0,0.0,0.0,0.0,0.0,0.0,0.0,0.0,0.0,0.0,0.0,0.0,0.0,0.0,0.0,0.0,0.0,0.0,0.0,0.0,0.0,0.0,0.0,0.0,0.0,0.0,0.0,0.0,0.0,0.0,0.0,0.0,0.0,0.0,0.0,0.0,0.0,0.0,0.0,0.0,0.0,0.0,0.0,0.0,0.0,0.0,0.0,0.0,0.0,0.0,0.0,0.0,0.0,0.0,0.0,0.0,0.0,0.0,0.0,0.0,0.0,0.0,0.0,0.0,0.0,0.0,0.0,0.0,0.0,0.0,0.0,0.0,0.0,0.0,0.0,0.0,0.0,0.0,0.0,0.0,0.0,0.0,0.0,0.0,0.0,0.0,0.0,0.0,0.0,0.0,0.0,0.0,0.0,0.0,0.0,0.0,0.0,0.0,0.0,0.0,0.0,0.0,0.0,0.0,0.0,0.0,0.0,0.0,0.0,0.0,0.0,0.0,0.0,0.0,0.0,0.0,0.0,0.0,0.0,0.0,0.0,0.0,0.0,0.0,0.0,0.0,0.0,0.0,0.0,0.0,0.0,0.0,0.0,0.0,0.0,0.0,0.0,0.0,0.0,0.0,0.0,0.0,0.0,0.0,0.0,0.0,0.0,0.0,0.0,0.0,0.0,0.0,0.0,0.0,0.0,0.0,0.0,0.0,0.0,0.0,0.0,0.0,0.0,0.0,0.0,0.0,0.0,0.0,0.0,0.0,0.0,0.0,0.0,0.0,0.0,0.0,0.0,0.0,0.0,0.0,0.0,0.0,0.0,0.0,0.0,0.0,0.0,0.0,0.0,0.0,0.0,0.0,0.0,0.0,0.0,0.0,0.0,0.0,0.0,0.0,0.0,0.0,0.0,0.0,0.0,0.0,0.0,0.0,0.0,0.0,0.0,0.0,0.0,0.0,0.0,0.0,0.0,0.0,0.0,0.0,0.0,0.0,0.0,0.0,0.0,0.0,0.0,0.0,0.0,0.0,0.0,0.0,0.0,0.0,0.0,0.0,0.0,0.0,0.0,0.0,0.0,0.0,0.0,0.0,0.0,0.0,0.0,0.0,0.0,0.0,0.0,0.0,0.0,0.0,0.0,0.0,0.0,0.0,0.0,0.0,0.0,0.0,0.0,0.0,0.0,0.0,0.0,0.0,0.0,0.0,0.0,0.0,0.0,0.0,0.0,0.0,0.0,0.0,0.0,0.0,0.0,0.0,0.0,0.0,0.0,0.0,0.0,0.0,0.0,0.0,0.0,0.0,0.0,0.0,0.0,0.0,0.0,0.0,0.0,0.0,0.0,0.0,0.0,0.0,0.0,0.0,0.0,0.0,0.0,0.0,0.0,0.0,0.0,0.0,0.0,0.0,0.0,0.0,0.0,0.0,0.0,0.0,0.0,0.0,0.0,0.0,0.0,0.0,0.0,0.0,0.0,0.0,0.0,0.0,0.0,0.0,0.0,0.0,0.0,0.0,0.0,0.0,0.0,0.0,0.0,0.0,0.0,0.0,0.0,0.0,0.0,0.0,0.0,0.0,0.0,0.0,0.0,0.0,0.0,0.0,0.0,0.0,0.0,0.0,0.0,0.0,0.0,0.0,0.0,0.0,0.0,0.0,0.0,0.0,0.0,0.0,0.0,0.0,0.0,0.0,0.0,0.0,0.0,0.0,0.0,0.0,0.0,0.0,0.0,0.0,0.0,0.0,0.0,0.0,0.0,0.0,0.0,0.0,0.0,0.0,0.0,0.0,0.0,0.0,0.0,0.0,0.0,0.0,0.0,0.0,0.0,0.0,0.0,0.0,0.0,0.0,0.0,0.0,0.0,0.0,0.0,0.0,0.0,0.0,0.0,0.0,0.0,0.0,0.0,0.0,0.0,0.0,0.0,0.0,0.0,0.0,0.0,0.0,0.0,0.0,0.0,0.0,0.0,0.0,0.0,0.0,0.0,0.0,0.0,0.0,0.0,0.0,0.0,0.0,0.0,0.0,0.0,0.0,0.0,0.0,0.0,0.0,0.0,0.0,0.0,0.0,0.0,0.0,0.0,0.0,0.0,0.0,0.0,0.0,0.0,0.0,0.0,0.0,0.0,0.0,0.0,0.0,0.0,0.0,0.0,0.0,0.0,0.0,0.0,0.0,0.0,0.0,0.0,0.0,0.0,0.0,0.0,0.0,0.0,0.0,0.0,0.0,0.0,0.0,0.0,0.0,0.0,0.0,0.0,0.0,0.0,0.0,0.0,0.0,0.0,0.0,0.0,0.0,0.0,0.0,0.0,0.0,0.0,0.0,0.0,0.0,0.0,0.0,0.0,0.0,0.0,0.0,0.0,0.0,0.0,0.0,0.0,0.0,0.0,0.0,0.0,0.0,0.0,0.0,0.0,0.0,0.0,0.0,0.0,0.0,0.0,0.0,0.0,0.0,0.0,0.0,0.0,0.0,0.0,0.0,0.0,0.0,0.0,0.0,0.0,0.0,0.0,0.0,0.0,0.0,0.0,0.0,0.0,0.0,0.0,0.0,0.0,0.0,0.0,0.0,0.0,0.0,0.0,0.0,0.0,0.0,0.0,0.0,0.0,0.0,0.0,0.0,0.0,0.0,0.0,0.0,0.0,0.0,0.0,0.0,0.0,0.0,0.0,0.0,0.0,0.0,0.0,0.0,0.0,0.0,0.0,0.0,0.0,0.0,0.0,0.0,0.0,0.0,0.0,0.0,0.0,0.0,0.0,0.0,0.0,0.0,0.0,0.0,0.0,0.0,0.0,0.0,0.0,0.0,0.0,0.0,0.0,0.0,0.0,0.0,0.0,0.0,0.0,0.0,0.0,0.0,0.0,0.0,0.0,0.0,0.0,0.0,0.0,0.0,0.0,0.0,0.0,0.0,0.0,0.0,0.0,0.0,0.0,0.0,0.0,0.0,0.0,0.0,0.0,0.0,0.0,0.0,0.0,0.0,0.0,0.0,0.0,0.0,0.0,0.0,0.0,0.0,0.0,0.0,0.0,0.0,0.0,0.0,0.0,0.0,0.0,0.0,0.0,0.0,0.0,0.0,0.0,0.0,0.0,0.0,0.0,0.0,0.0,0.0,0.0,0.0,0.0,0.0,0.0,0.0,0.0,0.0,0.0,0.0,0.0,0.0,0.0,0.0,0.0,0.0,0.0,0.0,0.0,0.0,0.0,0.0,0.0,0.0,0.0,0.0,0.0,0.0,0.0,0.0,0.0,0.0,0.0,0.0,0.0,0.0,0.0,0.0,0.0,0.0,0.0,0.0,0.0,0.0,0.0,0.0,0.0,0.0,0.0,0.0,0.0,0.0,0.0,0.0,0.0,0.0,0.0,0.0,0.0,0.0,0.0,0.0,0.0,0.0,0.0,0.0,0.0,0.0,0.0,0.0,0.0,0.0,0.0,0.0,0.0,0.0,0.0,0.0,0.0,0.0,0.0,0.0,0.0,0.0,0.0,0.0,0.0,0.0,0.0,0.0,0.0,0.0,0.0,0.0,0.0,0.0,0.0,0.0,0.0,0.0,0.0,0.0,0.0,0.0,0.0,0.0,0.0,0.0,0.0,0.0,0.0,0.0,0.0,0.0,0.0,0.0,0.0,0.0,0.0,0.0,0.0,0.0,0.0,0.0,0.0,0.0,0.0,0.0,0.0,0.0,0.0,0.0,0.0,0.0,0.0,0.0,0.0,0.0,0.0,0.0,0.0,0.0,0.0,0.0,0.0,0.0,0.0,0.0,0.0,0.0,0.0,0.0,0.0,0.0,0.0,0.0,0.0,0.0,0.0,0.0,0.0,0.0,0.0,0.0,0.0,0.0,0.0,0.0,0.0,0.0,0.0,0.0,0.0,0.0,0.0,0.0,0.0,0.0,0.0,0.0,0.0,0.0,0.0,0.0,0.0,0.0,0.0,0.0,0.0,0.0,0.0,0.0,0.0,0.0,0.0,0.0,0.0,0.0,0.0,0.0,0.0,0.0,0.0,0.0,0.0,0.0,0.0,0.0,0.0,0.0,0.0,0.0,0.0,0.0,0.0,0.0,0.0,0.0,0.0,0.0,0.0,0.0,0.0,0.0,0.0,0.0,0.0,0.0,0.0,0.0,0.0,0.0,0.0,0.0,0.0,0.0,0.0,0.0,0.0,0.0,0.0,0.0,0.0,0.0,0.0,0.0,0.0,0.0,0.0,0.0,0.0,0.0,0.0,0.0,0.0,0.0,0.0,0.0,0.0,0.0,0.0,0.0,0.0,0.0,0.0,0.0,0.0,0.0,0.0,0.0,0.0,0.0,0.0,0.0,0.0,0.0,0.0,0.0,0.0,0.0,0.0,0.0,0.0,0.0,0.0,0.0,0.0,0.0,0.0,0.0,0.0,0.0,0.0,0.0,0.0,0.0,0.0,0.0,0.0,0.0,0.0,0.0,0.0,0.0,0.0,0.0,0.0,0.0,0.0,0.0,0.0,0.0,0.0,0.0,0.0,0.0,0.0,0.0,0.0,0.0,0.0,0.0,0.0,0.0,0.0,0.0,0.0,0.0,0.0,0.0,0.0,0.0,0.0,0.0,0.0,0.0,0.0,0.0,0.0,0.0,0.0,0.0,0.0,0.0,0.0,0.0,0.0,0.0,0.0,0.0,0.0,0.0,0.0,0.0,0.0,0.0,0.0,0.0,0.0,0.0,0.0,0.0,0.0,0.0,0.0,0.0,0.0,0.0,0.0,0.0,0.0,0.0,0.0,0.0,0.0,0.0,0.0,0.0,0.0,0.0,0.0,0.0,0.0,0.0,0.0,0.0,0.0,0.0,0.0,0.0,0.0,0.0,0.0,0.0,0.0,0.0,0.0,0.0,0.0,0.0,0.0,0.0,0.0,0.0,0.0,0.0,0.0,0.0,0.0,0.0,0.0,0.0,0.0,0.0,0.0,0.0,0.0,0.0,0.0,0.0,0.0,0.0,0.0,0.0,0.0,0.0,0.0,0.0,0.0,0.0,0.0,0.0,0.0,0.0,0.0,0.0,0.0,0.0,0.0,0.0,0.0,0.0,0.0,0.0,0.0,0.0,0.0,0.0,0.0,0.0,0.0,0.0,0.0,0.0,0.0,0.0,0.0,0.0,0.0,0.0,0.0,0.0,0.0,0.0,0.0,0.0,0.0,0.0,0.0,0.0,0.0,0.0,0.0,0.0,0.0,0.0,0.0,0.0,0.0,0.0,0.0,0.0,0.0,0.0,0.0,0.0,0.0,0.0,0.0,0.0,0.0,0.0,0.0,0.0,0.0,0.0,0.0,0.0,0.0,0.0,0.0,0.0,0.0,0.0,0.0,0.0,0.0,0.0,0.0,0.0,0.0,0.0,0.0,0.0,0.0,0.0,0.0,0.0,0.0,0.0,0.0,0.0,0.0,0.0,0.0,0.0,0.0,0.0,0.0,0.0,0.0,0.0,0.0,0.0,0.0,0.0,0.0,0.0,0.0,0.0,0.0,0.0,0.0,0.0,0.0,0.0,0.0,0.0,0.0,0.0,0.0,0.0,0.0,0.0,0.0,0.0,0.0,0.0,0.0,0.0,0.0,0.0,0.0,0.0,0.0,0.0,0.0,0.0,0.0,0.0,0.0,0.0,0.0,0.0,0.0,0.0,0.0,0.0,0.0,0.0,0.0,0.0,0.0,0.0,0.0,0.0,0.0,0.0,0.0,0.0,0.0,0.0,0.0,0.0,0.0,0.0,0.0,0.0,0.0,0.0,0.0,0.0,0.0,0.0,0.0,0.0,0.0,0.0,0.0,0.0,0.0,0.0,0.0,0.0,0.0,0.0,0.0,0.0,0.0,0.0,0.0,0.0,0.0,0.0,0.0,0.0,0.0,0.0,0.0,0.0,0.0,0.0,0.0,0.0,0.0,0.0,0.0,0.0,0.0,0.0,0.0,0.0,0.0,0.0,0.0,0.0,0.0,0.0,0.0,0.0,0.0,0.0,0.0,0.0,0.0,0.0,0.0,0.0,0.0,0.0,0.0,0.0,0.0,0.0,0.0,0.0,0.0,0.0,0.0,0.0,0.0,0.0,0.0,0.0,0.0,0.0,0.0,0.0,0.0,0.0,0.0,0.0,0.0,0.0,0.0,0.0,0.0,0.0,0.0,0.0,0.0,0.0,0.0,0.0,0.0,0.0,0.0,0.0,0.0,0.0,0.0,0.0,0.0,0.0,0.0,0.0,0.0,0.0,0.0,0.0,0.0,0.0,0.0,0.0,0.0,0.0,0.0,0.0,0.0,0.0,0.0,0.0,0.0,0.0,0.0,0.0,0.0,0.0,0.0,0.0,0.0,0.0,0.0,0.0,0.0,0.0,0.0,0.0,0.0,0.0,0.0,0.0,0.0,0.0,0.0,0.0,0.0,0.0,0.0,0.0,0.0,0.0,0.0,0.0,0.0,0.0,0.0,0.0,0.0,0.0,0.0,0.0,0.0,0.0,0.0,0.0,0.0,0.0,0.0,0.0,0.0,0.0,0.0,0.0,0.0,0.0,0.0,0.0,0.0,0.0,0.0,0.0,0.0,0.0,0.0,0.0,0.0,0.0,0.0,0.0,0.0,0.0,0.0,0.0,0.0,0.0,0.0,0.0,0.0,0.0,0.0,0.0,0.0,0.0,0.0,0.0,0.0,0.0,0.0,0.0,0.0,0.0,0.0,0.0,0.0,0.0,0.0,0.0,0.0,0.0,0.0,0.0,0.0,0.0,0.0,0.0,0.0,0.0,0.0,0.0,0.0,0.0,0.0,0.0,0.0,0.0,0.0,0.0,0.0,0.0,0.0,0.0,0.0,0.0,0.0,0.0,0.0,0.0,0.0,0.0,0.0,0.0,0.0,0.0,0.0,0.0,0.0,0.0,0.0,0.0,0.0,0.0,0.0,0.0,0.0,0.0,0.0,0.0,0.0,0.0,0.0,0.0,0.0,0.0,0.0,0.0,0.0,0.0,0.0,0.0,0.0,0.0,0.0,0.0,0.0,0.0,0.0,0.0,0.0,0.0,0.0,0.0,0.0,0.0,0.0,0.0,0.0,0.0,0.0,0.0,0.0,0.0,0.0,0.0,0.0,0.0,0.0,0.0,0.0,0.0,0.0,0.0,0.0,0.0,0.0,0.0,0.0,0.0,0.0,0.0,0.0,0.0,0.0,0.0,0.0,0.0,0.0,0.0,0.0,0.0,0.0,0.0,0.0,0.0,0.0,0.0,0.0,0.0,0.0,0.0,0.0,0.0,0.0,0.0,0.0,0.0,0.0,0.0,0.0,0.0,0.0,0.0,0.0,0.0,0.0,0.0,0.0,0.0,0.0,0.0,0.0,0.0,0.0,0.0,0.0,0.0,0.0,0.0,0.0,0.0,0.0,0.0,0.0,0.0,0.0,0.0,0.0,0.0,0.0,0.0,0.0,0.0,0.0,0.0,0.0,0.0,0.0,0.0,0.0,0.0,0.0,0.0,0.0,0.0,0.0,0.0,0.0,0.0,0.0,0.0,0.0,0.0,0.0,0.0,0.0,0.0,0.0,0.0,0.0,0.0,0.0,0.0,0.0,0.0,0.0,0.0,0.0,0.0,0.0,0.0,0.0,0.0,0.0,0.0,0.0,0.0,0.0,0.0,0.0,0.0,0.0,0.0,0.0,0.0,0.0,0.0,0.0,0.0,0.0,0.0,0.0,0.0,0.0,0.0,0.0,0.0,0.0,0.0,0.0,0.0,0.0,0.0,0.0,0.0,0.0,0.0,0.0,0.0,0.0,0.0,0.0,0.0,0.0,0.0,0.0,0.0,0.0,0.0,0.0,0.0,0.0,0.0,0.0,0.0,0.0,0.0,0.0,0.0,0.0,0.0,0.0,0.0,0.0,0.0,0.0,0.0,0.0,0.0,0.0,0.0,0.0,0.0,0.0,0.0,0.0,0.0,0.0,0.0,0.0,0.0,0.0,0.0,0.0,0.0,0.0,0.0,0.0,0.0,0.0,0.0,0.0,0.0,0.0,0.0,0.0,0.0,0.0,0.0,0.0,0.0,0.0,0.0,0.0,0.0,0.0,0.0,0.0,0.0,0.0,0.0,0.0,0.0,0.0,0.0,0.0,0.0,0.0,0.0,0.0,0.0,0.0,0.0,0.0,0.0,0.0,0.0,0.0,0.0,0.0,0.0,0.0,0.0,0.0,0.0,0.0,0.0,0.0,0.0,0.0,0.0,0.0,0.0,0.0,0.0,0.0,0.0,0.0,0.0,0.0,0.0,0.0,0.0,0.0,0.0,0.0,0.0,0.0,0.0,0.0,0.0,0.0,0.0,0.0,0.0,0.0,0.0,0.0,0.0,0.0,0.0,0.0,0.0,0.0,0.0,0.0,0.0,0.0,0.0,0.0,0.0,0.0,0.0,0.0,0.0,0.0,0.0,0.0,0.0,0.0,0.0,0.0,0.0,0.0,0.0,0.0,0.0,0.0,0.0,0.0,0.0,0.0,0.0,0.0,0.0,0.0,0.0,0.0,0.0,0.0,0.0,0.0,0.0,0.0,0.0,0.0,0.0,0.0,0.0,0.0,0.0,0.0,0.0,0.0,0.0,0.0,0.0,0.0,0.0,0.0,0.0,0.0,0.0,0.0,0.0,0.0,0.0,0.0,0.0,0.0,0.0,0.0,0.0,0.0,0.0,0.0,0.0,0.0,0.0,0.0,0.0,0.0,0.0,0.0,0.0,0.0,0.0,0.0,0.0,0.0,0.0,0.0,0.0,0.0,0.0,0.0,0.0,0.0,0.0,0.0,0.0,0.0,0.0,0.0,0.0,0.0,0.0,0.0,0.0,0.0,0.0,0.0,0.0,0.0,0.0,0.0,0.0,0.0,0.0,0.0,0.0,0.0,0.0,0.0,0.0,0.0,0.0,0.0,0.0,0.0,0.0,0.0,0.0,0.0,0.0,0.0,0.0,0.0,0.0,0.0,0.0,0.0,0.0,0.0,0.0,0.0,0.0,0.0,0.0,0.0,0.0,0.0,0.0,0.0,0.0,0.0,0.0,0.0,0.0,0.0,0.0,0.0,0.0,0.0,0.0,0.0,0.0,0.0,0.0,0.0,0.0,0.0,0.0,0.0,0.0,0.0,0.0,0.0,0.0,0.0,0.0,0.0,0.0,0.0,0.0,0.0,0.0,0.0,0.0,0.0,0.0,0.0,0.0,0.0,0.0,0.0,0.0,0.0,0.0,0.0,0.0,0.0,0.0,0.0,0.0,0.0,0.0,0.0,0.0,0.0,0.0,0.0,0.0,0.0,0.0,0.0,0.0,0.0,0.0,0.0,0.0,0.0,0.0,0.0,0.0,0.0,0.0,0.0,0.0,0.0,0.0,0.0,0.0,0.0,0.0,0.0,0.0,0.0,0.0,0.0,0.0,0.0,0.0,0.0,0.0,0.0,0.0,0.0,0.0,0.0,0.0,0.0,0.0,0.0,0.0,0.0,0.0,0.0,0.0,0.0,0.0,0.0,0.0,0.0,0.0,0.0,0.0,0.0,0.0,0.0,0.0,0.0,0.0,0.0,0.0,0.0,0.0,0.0,0.0,0.0,0.0,0.0,0.0,0.0,0.0,0.0,0.0,0.0,0.0,0.0,0.0,0.0,0.0,0.0,0.0,0.0,0.0,0.0,0.0,0.0,0.0,0.0,0.0,0.0,0.0,0.0,0.0,0.0,0.0,0.0,0.0,0.0,0.0,0.0,0.0,0.0,0.0,0.0,0.0,0.0,0.0,0.0,0.0,0.0,0.0,0.0,0.0,0.0,0.0,0.0,0.0,0.0,0.0,0.0,0.0,0.0,0.0,0.0,0.0,0.0,0.0,0.0,0.0,0.0,0.0,0.0,0.0,0.0,0.0,0.0,0.0,0.0,0.0,0.0,0.0,0.0,0.0,0.0,0.0,0.0,0.0,0.0,0.0,0.0,0.0,0.0,0.0,0.0,0.0,0.0,0.0,0.0,0.0,0.0,0.0,0.0,0.0,0.0,0.0,0.0,0.0,0.0,0.0,0.0,0.0,0.0,0.0,0.0,0.0,0.0,0.0,0.0,0.0,0.0,0.0,0.0,0.0,0.0,0.0,0.0,0.0,0.0,0.0,0.0,0.0,0.0,0.0,0.0,0.0,0.0,0.0,0.0,0.0,0.0,0.0,0.0,0.0,0.0,0.0,0.0,0.0,0.0,0.0,0.0,0.0,0.0,0.0,0.0,0.0,0.0,0.0,0.0,0.0,0.0,0.0,0.0,0.0,0.0,0.0,0.0,0.0,0.0,0.0,0.0,0.0,0.0,0.0,0.0,0.0,0.0,0.0,0.0,0.0,0.0,0.0,0.0,0.0,0.0,0.0,0.0,0.0,0.0,0.0,0.0,0.0,0.0,0.0,0.0,0.0,0.0,0.0,0.0,0.0,0.0,0.0,0.0,0.0,0.0,0.0,0.0,0.0,0.0,0.0,0.0,0.0,0.0,0.0,0.0,0.0,0.0,0.0,0.0,0.0,0.0,0.0,0.0,0.0,0.0,0.0,0.0,0.0,0.0,0.0,0.0,0.0,0.0,0.0,0.0,0.0,0.0,0.0,0.0,0.0,0.0,0.0,0.0,0.0,0.0,0.0,0.0,0.0,0.0,0.0,0.0,0.0,0.0,0.0,0.0,0.0,0.0,0.0,0.0,0.0,0.0,0.0,0.0,0.0,0.0,0.0,0.0,0.0,0.0,0.0,0.0,0.0,0.0,0.0,0.0,0.0,0.0,0.0,0.0,0.0,0.0,0.0,0.0,0.0,0.0,0.0,0.0,0.0,0.0,0.0,0.0,0.0,0.0,0.0,0.0,0.0,0.0,0.0,0.0,0.0,0.0,0.0,0.0,0.0,0.0,0.0,0.0,0.0,0.0,0.0,0.0,0.0,0.0,0.0,0.0,0.0,0.0,0.0,0.0,0.0,0.0,0.0,0.0,0.0,0.0,0.0,0.0,0.0,0.0,0.0,0.0,0.0,0.0,0.0,0.0,0.0,0.0,0.0,0.0,0.0,0.0,0.0,0.0,0.0,0.0,0.0,0.0,0.0,0.0,0.0,0.0,0.0,0.0,0.0,0.0,0.0,0.0,0.0,0.0,0.0,0.0,0.0,0.0,0.0,0.0,0.0,0.0,0.0,0.0,0.0,0.0,0.0,0.0,0.0,0.0,0.0,0.0,0.0,0.0,0.0,0.0,0.0,0.0,0.0,0.0,0.0,0.0,0.0,0.0,0.0,0.0,0.0,0.0,0.0,0.0,0.0,0.0,0.0,0.0,0.0,0.0,0.0,0.0,0.0,0.0,0.0,0.0,0.0,0.0,0.0,0.0,0.0,0.0,0.0,0.0,0.0,0.0,0.0,0.0,0.0,0.0,0.0,0.0,0.0,0.0,0.0,0.0,0.0,0.0,0.0,0.0,0.0,0.0,0.0,0.0,0.0,0.0,0.0,0.0,0.0,0.0,0.0,0.0,0.0,0.0,0.0,0.0,0.0,0.0,0.0,0.0,0.0,0.0,0.0,0.0,0.0,0.0,0.0,0.0,0.0,0.0,0.0,0.0,0.0,0.0,0.0,0.0,0.0,0.0,0.0,0.0,0.0,0.0,0.0,0.0,0.0,0.0,0.0,0.0,0.0,0.0,0.0,0.0,0.0,0.0,0.0,0.0,0.0,0.0,0.0,0.0,0.0,0.0,0.0,0.0,0.0,0.0,0.0,0.0,0.0,0.0,0.0,0.0,0.0,0.0,0.0,0.0,0.0,0.0,0.0,0.0,0.0,0.0,0.0,0.0,0.0,0.0,0.0,0.0,0.0,0.0,0.0,0.0,0.0,0.0,0.0,0.0,0.0,0.0,0.0,0.0,0.0,0.0,0.0,0.0,0.0,0.0,0.0,0.0,0.0,0.0,0.0,0.0,0.0,0.0,0.0,0.0,0.0,0.0,0.0,0.0,0.0,0.0,0.0,0.0,0.0,0.0,0.0,0.0,0.0,0.0,0.0,0.0,0.0,0.0,0.0,0.0,0.0,0.0,0.0,0.0,0.0,0.0,0.0,0.0,0.0,0.0,0.0,0.0,0.0,0.0,0.0,0.0,0.0,0.0,0.0,0.0,0.0,0.0,0.0,0.0,0.0,0.0,0.0,0.0,0.0,0.0,0.0,0.0,0.0,0.0,0.0,0.0,0.0,0.0,0.0,0.0,0.0,0.0,0.0,0.0,0.0,0.0,0.0,0.0,0.0,0.0,0.0,0.0,0.0,0.0,0.0,0.0,0.0,0.0,0.0,0.0,0.0,0.0,0.0,0.0,0.0,0.0,0.0,0.0,0.0,0.0,0.0,0.0,0.0,0.0,0.0,0.0,0.0,0.0,0.0,0.0,0.0,0.0,0.0,0.0,0.0,0.0,0.0,0.0,0.0,0.0,0.0,0.0,0.0,0.0,0.0,0.0,0.0,0.0,0.0,0.0,0.0,0.0,0.0,0.0,0.0,0.0,0.0,0.0,0.0,0.0,0.0,0.0,0.0,0.0,0.0,0.0,0.0,0.0,0.0,0.0,0.0,0.0,0.0,0.0,0.0,0.0,0.0,0.0,0.0,0.0,0.0,0.0,0.0,0.0,0.0,0.0,0.0,0.0,0.0,0.0,0.0,0.0,0.0,0.0,0.0,0.0,0.0,0.0,0.0,0.0,0.0,0.0,0.0,0.0,0.0,0.0,0.0,0.0,0.0,0.1233,0.0,0.0,0.0,0.0,0.0,0.0,0.0,0.0,0.0,0.0,0.0,0.0,0.0,0.0,0.0,0.0,0.0,0.0,0.0,0.0,0.0,0.0,0.0,0.0,0.0,0.0,0.0,0.0,0.0,0.0,0.0,0.0,0.0,0.0,0.0,0.0,0.0,0.0,0.0,0.0,0.0,0.0,0.0,0.0,0.0,0.0,0.0,0.0,0.0,0.0,0.0,0.0,0.0,0.0,0.0,0.0,0.0,0.0,0.0,0.0,0.0,0.0,0.0,0.0,0.0,0.0,0.0,0.0,0.0,0.0,0.0,0.0,0.0,0.0,0.0,0.0,0.0,0.0,0.0,0.0,0.0,0.0,0.0,0.0,0.0,0.0,0.0,0.0,0.0,0.0,0.0,0.0,0.0,0.0,0.0,0.0,0.0,0.0,0.0,0.0,0.0,0.0,0.0,0.0,0.0,0.0,0.0,0.0,0.0,0.0,0.0,0.0,0.0,0.0,0.0,0.0,0.0,0.0,0.0,0.0,0.0,0.0,0.0,0.0,0.0,0.0,0.0,0.0,0.0,0.0,0.0,0.0,0.0,0.0,0.0,0.0,0.1077,0.1887,0.1897,0.0811,0.0,0.0,0.0,0.0,0.0,0.0,0.0,0.0,0.0,0.0,0.0,0.0,0.0,0.0,0.0,0.0,0.0,0.0,0.0,0.0,0.0,0.0,0.0,0.0,0.0,0.0,0.0,0.0,0.0,0.0,0.0,0.0,0.0,0.0,0.0,0.0,0.0,0.0,0.0,0.0,0.0,0.0,0.0,0.0,0.0,0.0,0.0,0.0,0.0,0.0,0.0,0.0,0.0,0.0,0.0,0.0,0.0,0.0,0.0,0.0,0.0,0.0,0.0,0.0,0.0,0.0,0.0,0.0,0.0,0.0,0.0,0.0,0.0,0.0,0.0,0.0,0.0,0.0,0.0,0.0,0.0,0.0,0.0,0.0,0.0,0.0,0.0,0.0,0.0,0.0,0.0159,0.0164,0.0,0.0,0.0,0.0,0.0,0.0,0.0,0.0,0.0,0.0,0.0,0.0,0.0,0.0,0.0,0.0,0.2689,0.4305,0.4305,0.1624,0.0,0.0,0.0,0.0,0.0,0.0,0.0,0.0,0.0,0.0,0.0,0.0,0.0,0.0,0.0,0.0,0.0,0.0,0.0,0.0,0.0,0.0,0.0,0.0,0.0,0.0,0.0,0.0,0.0,0.0,0.0,0.0,0.0,0.0,0.0,0.0,0.0,0.0,0.0,0.0,0.0,0.0,0.0,0.0,0.0,0.0,0.0,0.0,0.0,0.0,0.0,0.0,0.0,0.0,0.0,0.0,0.0,0.0,0.0,0.0,0.0,0.0,0.0,0.0,0.0,0.0,0.0,0.0,0.0,0.0,0.0,0.0,0.0,0.0,0.0,0.0,0.0,0.0,0.0,0.0,0.0,0.0,0.0,0.0,0.0,0.0,0.0,0.0,0.0,0.0,0.0944,0.1449,0.0312,0.0,0.0,0.0,0.0,0.0,0.0,0.0,0.0,0.0,0.0,0.0,0.0,0.0,0.0,0.0,0.2662,0.4274,0.4274,0.1613,0.0,0.0,0.0,0.0,0.0,0.0,0.0,0.0,0.0,0.0,0.0,0.0,0.0,0.0,0.0,0.0,0.0,0.0,0.0,0.0,0.0,0.0,0.0,0.0,0.0,0.0,0.0,0.0,0.0,0.0,0.0,0.0,0.0,0.0,0.0,0.0,0.0,0.0,0.0,0.0,0.0,0.0,0.0,0.0,0.0,0.0,0.0,0.0,0.0,0.0,0.0,0.0,0.0,0.0,0.0,0.0,0.0,0.0,0.0,0.0,0.0,0.0,0.0,0.0,0.0,0.0,0.0,0.0,0.0,0.0,0.0,0.0,0.0,0.0,0.0,0.0,0.0,0.0,0.0,0.0,0.0,0.0,0.0,0.0,0.0,0.0,0.0411,0.0,0.0,0.0,0.066,0.0957,0.0149,0.0,0.0,0.0,0.0,0.0,0.0,0.0,0.0,0.0,0.0,0.0,0.0,0.0,0.0,0.0,0.262,0.4226,0.4242,0.2936,0.16,0.0,0.0,0.0,0.0,0.0,0.0,0.0,0.0,0.0,0.0,0.0,0.0,0.0,0.0,0.0,0.0,0.0,0.0,0.0,0.0,0.0,0.0,0.0,0.0,0.0,0.0,0.0,0.0,0.0,0.0,0.0,0.0,0.0,0.0,0.0,0.0,0.0,0.0,0.0,0.0,0.0,0.0,0.0,0.0,0.0,0.0,0.0,0.0,0.0,0.0,0.0,0.0,0.0,0.0,0.0,0.0,0.0,0.0,0.0,0.0,0.0,0.0,0.0,0.0,0.0,0.0,0.0,0.0,0.0,0.0,0.0,0.0,0.0,0.0,0.0,0.0,0.0,0.0,0.0,0.0,0.0,0.0,0.0,0.0,0.0,0.0,0.0,0.0415,0.0,0.0,0.0,0.0,0.0,0.0,0.0,0.0,0.0,0.0,0.0,0.0,0.0,0.0,0.0,0.0,0.0,0.0,0.0,0.2544,0.4374,0.4187,0.4184,0.3129,0.1039,0.0264,0.0,0.0,0.0,0.0,0.0,0.0,0.0,0.0,0.0,0.0,0.0,0.0,0.0,0.0,0.0,0.0,0.0,0.0,0.0,0.0,0.0,0.0,0.0,0.0,0.0,0.0,0.0,0.0,0.0,0.0,0.0,0.0,0.0,0.0,0.0,0.0,0.0,0.0,0.0,0.0,0.0,0.0,0.0,0.0,0.0,0.0,0.0,0.0,0.0,0.0,0.0,0.0,0.0,0.0,0.0,0.0,0.0,0.0,0.0,0.0,0.0,0.0,0.0,0.0,0.0,0.0,0.0,0.0,0.0,0.0,0.0,0.0,0.0,0.0,0.0,0.0,0.0,0.0,0.0,0.0,0.0,0.0,0.0,0.0,0.2446,0.0,0.0,0.0,0.0,0.0,0.0,0.0,0.0,0.0,0.0,0.0,0.0,0.0,0.0,0.0,0.0,0.0,0.0,0.0,0.0,0.2387,0.4108,0.4086,0.4203,0.3936,0.3833,0.1297,0.0,0.0,0.0,0.0,0.0,0.0,0.0,0.0,0.0,0.0,0.0,0.0,0.0,0.0,0.0,0.0,0.0,0.0,0.0,0.0,0.0,0.0,0.0,0.0,0.0,0.0,0.0,0.0,0.0,0.0,0.0,0.0,0.0,0.0,0.0,0.0,0.0,0.0,0.0,0.0,0.0,0.0,0.0,0.0,0.0,0.0,0.0,0.0,0.0,0.0,0.0,0.0,0.0,0.0,0.0,0.0,0.0,0.0,0.0,0.0,0.0,0.0,0.0,0.0,0.0,0.0,0.0,0.0,0.0,0.0,0.0,0.0,0.0,0.0,0.0,0.0,0.0,0.0,0.0,0.0,0.0,0.0,0.0,0.0,0.0,0.0,0.1343,0.0,0.1154,0.1158,0.0,0.0,0.0,0.0,0.0,0.0,0.0,0.0,0.0,0.0,0.0,0.0,0.0,0.0626,0.2191,0.3317,0.3847,0.3095,0.3535,0.4048,0.4219,0.304,0.154,0.0,0.0,0.0,0.0,0.0,0.0,0.0,0.0,0.0,0.0,0.0,0.0,0.0,0.0,0.0,0.0,0.0,0.0,0.0,0.0,0.0,0.0,0.0,0.0,0.0,0.0,0.0,0.0,0.0,0.0,0.0,0.0,0.0,0.0,0.0,0.0,0.0,0.0,0.0,0.0,0.0,0.0,0.0,0.0,0.0,0.0,0.0,0.0,0.0,0.0,0.0,0.0,0.0,0.0,0.0,0.0,0.0,0.0,0.0,0.0,0.0,0.0,0.0,0.0,0.0,0.0,0.0,0.0,0.0,0.0,0.0,0.0,0.0,0.0,0.0,0.0,0.0,0.0,0.0,1.3385,0.0,0.0,0.0,0.0,0.0,0.0,0.0,0.0,0.0,0.1309,0.0,0.0,0.0,0.1883,0.0642,0.0,0.0547,0.0529,0.0567,0.0312,0.0,0.0,0.0931,0.3373,0.3607,0.3307,0.265,0.3296,0.383,0.4096,0.3947,0.3016,0.1023,0.0255,0.0,0.0,0.0,0.0,0.0,0.0,0.0,0.0,0.0,0.0,0.0,0.0,0.0,0.0,0.0,0.0,0.0,0.0,0.0,0.0,0.0,0.0,0.0,0.0,0.0,0.0,0.0,0.0,0.0,0.0,0.0,0.0,0.0,0.0,0.0,0.0,0.0,0.0,0.0,0.0,0.0,0.0,0.0,0.0,0.0,0.0,0.0,0.0,0.0,0.0,0.0,0.0,0.0,0.0,0.0,0.0,0.0,0.0,0.0,0.0,0.0,0.0,0.0,0.0,0.0,0.0,0.0,0.0,0.0,0.0,0.0,0.0,0.0,0.0,0.0,0.0,0.0,0.0,0.0,0.0,0.3012,0.0,0.0,0.0,0.0,0.2049,0.0,0.0,0.216,0.2111,0.2191,0.0,0.0,0.1789,0.0,0.0,0.1842,0.1295,0.015,0.0,0.0725,0.2782,0.2994,0.2886,0.2475,0.3142,0.345,0.375,0.3835,0.3907,0.3745,0.1266,0.0,0.0,0.0,0.0,0.0,0.0,0.0,0.0,0.0,0.0,0.0,0.0,0.0,0.0,0.0,0.0,0.0,0.0,0.0,0.0,0.0,0.0,0.0,0.0,0.0,0.0,0.0,0.0,0.0,0.0,0.0,0.0,0.0,0.0,0.0,0.0,0.0,0.0,0.0,0.0,0.0,0.0,0.0,0.0,0.0,0.0,0.0,0.0,0.0,0.0,0.0,0.0,0.0,0.0,0.0,0.0,0.0,0.0,0.0,0.0,0.0,0.0,0.0,0.0,0.0,0.0,0.0,0.0,0.0,0.0,0.0,0.0,0.0,0.0,0.0,0.0,0.0,1.6349,1.4024,1.1329,1.0124,0.859,0.626,0.0,0.0,0.0,0.0,0.0,0.0,0.2311,0.2222,0.2268,0.2203,0.1897,0.1844,0.0,0.1877,0.1686,0.13,0.0433,0.0307,0.0922,0.0941,0.1326,0.2186,0.2926,0.3311,0.3346,0.367,0.3788,0.396,0.1251,0.0,0.0,0.0,0.0,0.0,0.1812,0.2588,0.2839,0.2595,0.1822,0.0,0.0,0.0,0.0,0.0,0.0,0.0,0.0,0.0,0.0,0.0,0.0,0.0,0.0,0.0,0.0,0.0,0.0,0.0,0.0,0.0,0.0,0.0,0.0,0.0,0.0,0.0,0.0,0.0,0.0,0.0,0.0,0.0,0.0,0.0,0.0,0.0,0.0,0.0,0.0,0.0,0.0,0.0,0.0,0.0,0.0,0.0,0.0,0.0,0.0,0.0,0.0,0.0,0.0,0.0,0.0,0.0,0.0,0.0,0.0,0.0,0.0,0.0,0.0,0.0,0.0,0.0,1.8137,1.4961,1.1491,0.9981,1.0339,1.006,0.5968,0.5095,0.4736,0.3287,0.2713,0.2447,0.2317,0.2316,0.2304,0.2252,0.2034,0.1817,0.0,0.1843,0.175,0.1777,0.1151,0.0675,0.0818,0.0703,0.1052,0.217,0.2885,0.3101,0.3142,0.3509,0.3892,0.3831,0.2215,0.1003,0.0,0.0,0.0,0.0,0.2828,0.4121,0.4131,0.4131,0.3105,0.1561,0.1564,0.157,0.1315,0.0527,0.0,0.0,0.0,0.0,0.0,0.0,0.0,0.0,0.0,0.0,0.0,0.0,0.0,0.0,0.0,0.0,0.0,0.0,0.0,0.0,0.0,0.0,0.0,0.0,0.0,0.0,0.0,0.0,0.0,0.0,0.0,0.0,0.0,0.0,0.0,0.0,0.0,0.0,0.0,0.0,0.0,0.0,0.0,0.0,0.0,0.0,0.0,0.0,0.0,0.0,0.0,0.0,0.0,0.0,0.0,0.0,0.0,0.0,0.0,0.0,0.0,0.0]}]]